GFSGBSN_2pvu_pres_057.txt.gz
Presure
151 116 127 116 105 140 103 126 123 138 112 155 150 195 158 120 99 131 119 181 135 168 207 143 375 358 395 502 476 439 425 371 343 337 343 327 324 303 310 274 267 240 214 198 179 172 196
147 119 125 122 109 106 162 114 117 132 136 145 135 166 116 155 144 118 149 135 147 186 136 304 368 299 453 489 495 445 429 388 342 319 341 330 312 315 313 294 268 265 224 209 191 184 169
118 121 133 126 131 120 181 115 119 142 127 141 162 170 177 134 118 116 162 137 149 140 203 378 364 350 492 462 471 477 422 427 339 321 339 326 313 315 337 297 281 299 264 217 199 189 181
117 122 121 124 120 130 148 108 139 145 106 133 143 202 172 173 155 155 145 135 179 207 358 233 126 333 460 472 476 472 428 423 339 326 323 320 315 305 297 314 284 285 269 229 206 200 191
107 122 141 133 113 128 124 118 120 138 122 129 143 214 174 169 126 146 197 134 155 187 122 124 130 346 479 453 477 469 450 418 330 321 317 326 299 305 290 320 305 287 259 260 241 208 197
110 122 115 130 120 125 125 109 132 142 141 132 143 223 144 224 117 121 151 142 147 127 159 150 224 432 448 418 415 491 444 412 328 320 305 300 293 301 297 323 297 286 277 268 271 224 204
108 115 119 119 125 130 114 131 133 125 129 147 156 162 171 164 164 137 124 151 188 119 142 140 349 485 147 425 424 476 443 388 327 317 299 308 348 296 292 316 324 277 269 262 249 255 219
144 117 113 118 127 130 131 108 134 140 136 136 150 169 156 148 175 143 248 152 155 110 173 356 233 478 421 406 441 455 423 356 329 314 308 289 346 316 278 324 315 279 282 268 254 243 231
212 117 118 157 126 127 124 134 132 141 145 147 222 135 126 155 153 141 126 152 166 181 283 268 117 184 387 421 405 398 381 348 325 318 302 299 329 323 285 287 272 294 276 264 259 247 239
186 116 191 130 123 130 134 130 134 124 143 139 128 196 150 132 133 151 160 139 161 182 190 159 116 112 425 419 379 391 379 351 325 313 297 295 294 326 297 269 285 252 273 277 261 252 241
141 119 153 133 127 132 130 126 139 137 141 141 218 186 166 178 126 122 128 128 134 172 112 359 125 115 432 414 380 372 369 342 326 303 290 285 313 300 272 271 262 293 306 280 263 255 249
126 120 126 129 131 125 133 135 138 148 132 141 137 160 153 160 127 122 166 131 137 172 307 352 506 299 423 406 383 383 354 337 324 296 288 281 286 310 275 288 263 271 257 300 265 256 256
113 117 119 121 122 132 127 134 214 129 146 123 147 165 147 160 126 122 131 124 140 186 235 350 450 401 134 388 394 378 352 359 314 297 289 285 300 305 297 261 275 268 270 299 276 258 252
165 170 121 125 128 125 130 133 145 135 152 211 152 104 152 174 155 146 127 134 155 151 168 227 396 411 117 130 393 387 357 324 311 292 286 284 282 284 313 290 260 258 273 267 283 267 254
174 190 130 127 129 125 135 134 142 170 143 141 127 165 160 147 146 117 155 151 146 158 180 353 346 436 355 148 367 389 334 322 300 289 286 298 280 277 295 292 275 256 260 272 258 268 260
195 117 121 163 127 148 136 162 135 132 176 185 126 194 147 139 181 128 126 137 168 137 167 198 342 116 391 131 313 343 328 312 306 290 290 278 282 271 288 296 283 277 263 264 268 267 268
234 229 240 129 126 135 167 139 135 204 152 141 161 135 167 161 114 124 148 159 126 127 160 179 341 298 369 356 348 322 307 297 290 284 282 287 293 243 297 279 290 278 222 274 264 246 245
234 223 188 169 239 129 181 145 248 138 130 139 136 129 166 233 120 125 132 156 156 167 168 170 339 213 389 124 122 323 316 320 285 288 287 293 299 264 271 288 273 274 277 277 274 278 274
216 189 215 184 136 144 221 160 126 148 128 128 134 143 154 141 136 140 122 126 138 151 168 163 222 331 203 357 341 324 327 308 301 297 292 287 281 290 222 281 276 284 274 284 284 278 274
194 251 169 176 182 218 245 126 124 150 137 124 201 139 156 127 128 117 124 151 156 169 182 143 176 337 325 244 344 306 289 294 310 293 286 284 278 275 269 256 258 265 269 268 269 267 273
149 157 224 135 134 201 251 230 147 132 211 127 149 123 155 136 153 128 131 145 117 141 178 181 272 347 329 319 356 335 306 288 284 288 276 282 282 259 254 262 260 263 259 263 260 260 264
128 233 162 218 243 166 150 127 143 133 124 206 146 141 165 162 106 142 135 122 150 142 143 146 165 195 112 321 309 346 322 316 305 292 263 276 273 271 264 253 249 260 260 260 260 271 273
241 156 200 148 241 118 240 150 182 172 134 150 133 130 235 126 168 126 112 123 138 126 140 104 164 196 356 280 277 307 317 314 246 300 290 284 270 285 262 267 271 274 266 262 264 262 264
219 221 187 186 144 145 128 237 133 126 130 149 131 162 168 152 160 121 174 110 121 124 141 104 156 178 256 352 280 283 303 291 301 299 306 306 302 300 303 282 274 273 274 280 279 276 274
257 189 128 128 143 118 138 129 129 137 126 156 143 169 148 153 154 123 174 104 140 127 148 178 178 180 114 232 228 324 147 178 293 284 284 279 273 280 285 285 286 303 318 307 302 301 292
203 126 195 196 222 210 142 146 228 175 235 158 135 147 149 133 136 145 171 124 116 136 102 138 111 149 172 178 358 181 325 303 300 293 286 281 274 268 266 264 274 273 278 279 282 280 268
231 195 191 118 163 202 237 195 214 184 202 234 217 152 157 132 154 124 151 90 122 164 144 155 174 136 164 151 272 166 305 320 309 301 289 284 280 275 271 268 270 258 260 265 263 270 269
127 171 202 226 196 233 166 220 127 192 200 172 195 159 150 152 148 158 132 145 134 148 160 153 168 118 153 207 186 261 267 357 288 309 295 290 284 280 275 267 265 264 263 259 260 258 256
193 186 162 205 212 227 201 241 151 231 151 158 165 158 137 148 140 160 151 124 129 129 116 137 212 187 127 157 234 123 167 311 241 330 310 298 290 285 280 278 275 272 266 265 262 263 261

GFSGBSN_2pvu_pres_060.txt.gz
Presure
116 114 118 118 121 120 123 137 134 122 174 121 127 131 133 156 174 227 131 255 146 136 144 142 167 134 124 127 518 506 418 403 418 365 347 347 345 331 301 318 325 282 239 200 179 169 169
119 117 110 117 120 142 126 140 137 166 150 121 135 139 128 151 204 167 202 157 143 126 154 158 142 223 346 282 481 507 412 403 408 361 337 343 338 326 297 307 302 291 231 218 192 181 205
113 115 121 119 119 121 127 136 136 135 149 119 135 137 104 133 174 203 150 143 179 154 142 157 163 127 324 450 472 387 457 399 401 358 340 338 335 331 335 307 298 325 279 224 212 202 181
117 196 114 116 117 122 127 139 142 190 128 119 135 170 139 145 220 183 175 223 149 147 166 145 202 176 363 489 480 474 448 407 398 352 342 333 333 321 323 339 307 300 288 270 213 206 182
120 119 167 116 116 118 124 131 139 126 117 133 130 179 139 147 205 187 190 144 192 180 114 171 141 307 312 399 381 482 480 414 410 346 331 322 319 312 308 341 316 296 322 276 266 211 196
113 181 110 114 111 119 123 121 136 146 132 129 147 144 174 123 211 209 150 190 214 144 115 162 164 231 132 407 432 442 474 419 408 329 334 310 318 313 307 314 373 299 300 273 269 261 214
108 115 158 111 118 117 119 119 131 134 130 138 145 144 154 163 173 172 126 171 162 152 139 146 151 131 116 129 424 461 473 412 390 326 318 310 314 321 309 327 338 284 314 278 271 269 252
200 132 176 115 120 121 121 143 128 137 128 139 147 136 161 189 169 184 152 141 149 143 131 187 225 319 125 208 438 486 428 394 335 315 313 312 291 312 333 310 303 267 275 272 270 265 254
182 186 197 112 117 117 120 126 131 136 146 138 144 145 145 141 188 213 142 153 141 146 142 146 248 396 429 443 259 428 412 357 325 312 308 312 293 315 315 298 290 302 305 275 278 289 287
193 211 117 195 112 122 124 126 140 127 134 141 142 129 159 157 237 175 160 134 225 137 139 146 169 425 399 378 246 411 373 340 311 312 300 300 308 303 329 290 284 284 283 279 296 285 287
190 198 202 195 135 176 126 133 137 133 135 133 145 215 144 159 238 128 162 148 157 134 168 149 194 427 170 127 282 393 353 327 313 300 300 294 316 329 299 279 285 307 283 279 276 278 282
186 150 199 224 126 123 138 133 140 139 136 139 144 131 158 149 157 147 141 137 158 142 164 131 270 480 116 237 316 390 352 327 309 298 299 296 300 302 337 302 290 276 270 302 308 280 283
195 181 163 203 132 118 134 125 135 124 139 132 143 140 159 132 141 177 146 141 132 125 132 133 191 446 374 132 383 358 363 327 313 309 297 300 299 286 293 343 305 276 313 322 308 299 281
231 228 217 180 201 135 169 131 133 133 161 137 192 127 142 162 139 184 143 131 152 161 174 187 181 397 118 145 273 376 350 332 319 313 291 287 290 300 293 337 289 298 285 283 257 285 264
261 237 188 222 134 175 118 135 127 136 130 141 134 157 143 152 126 149 139 134 132 121 136 128 254 369 357 194 133 355 381 348 313 290 295 290 285 289 331 309 300 274 270 282 297 243 283
176 184 223 212 180 183 168 130 131 133 128 138 133 150 205 135 190 169 128 132 156 121 131 175 202 370 385 367 398 359 367 347 300 296 288 284 283 284 300 298 324 282 278 271 259 272 296
248 194 251 184 197 190 222 205 134 213 130 153 132 164 134 160 188 141 128 139 154 143 182 142 152 392 363 389 378 384 337 306 304 295 289 285 282 309 306 292 302 266 278 270 258 262 263
174 189 264 238 183 234 200 169 206 129 137 149 147 129 140 158 227 132 126 116 176 149 166 129 143 203 368 366 339 337 328 320 303 296 233 286 288 264 276 304 297 293 259 256 271 262 266
173 240 192 253 182 202 228 218 185 139 205 213 131 132 137 129 153 134 152 137 117 141 137 154 145 219 311 360 165 298 322 286 270 295 289 244 283 270 271 260 269 283 282 274 262 259 263
183 182 218 201 192 223 206 227 204 185 195 175 139 149 152 174 149 138 152 126 117 121 140 129 139 170 346 212 342 331 292 319 313 302 283 277 284 275 279 272 292 284 279 272 274 270 269
183 192 243 239 185 235 203 169 182 224 183 134 153 132 154 115 159 161 133 141 110 138 127 141 127 166 144 309 326 313 322 295 280 289 264 281 297 287 299 277 283 286 290 282 275 266 273
180 236 256 193 242 223 194 204 211 141 131 135 137 136 148 130 181 135 115 119 122 126 136 132 181 138 126 340 132 351 311 318 225 322 286 260 288 276 259 269 262 268 229 263 264 283 219
208 223 202 252 195 219 215 219 169 124 203 129 145 158 133 139 204 163 168 123 119 120 126 153 224 154 164 303 157 327 319 331 305 298 305 274 300 277 264 286 264 248 261 253 256 238 268
225 180 244 167 194 164 184 136 117 247 165 225 169 140 145 135 183 144 191 129 149 113 123 127 178 159 143 142 123 284 330 317 310 318 305 288 284 277 279 269 278 267 267 266 272 262 257
190 198 221 197 226 233 123 199 239 146 133 137 125 145 190 140 169 149 164 117 130 116 111 138 122 138 172 148 263 121 121 287 310 309 301 309 317 314 285 275 277 275 269 270 277 267 271
120 170 223 190 241 212 195 226 159 124 153 137 136 230 222 137 169 155 146 141 161 116 109 100 153 239 152 174 169 269 267 348 249 308 301 293 291 287 283 290 293 297 289 296 297 306 314
229 197 222 216 216 206 243 160 159 133 208 227 228 176 175 146 180 141 144 163 133 116 118 113 114 142 123 177 159 221 148 260 318 314 327 312 299 291 287 284 280 270 263 263 269 273 272
189 167 209 208 173 215 179 219 175 242 200 173 223 229 157 182 218 149 138 143 160 144 160 132 191 179 224 139 150 138 235 236 262 265 214 328 323 211 298 290 285 281 278 273 267 264 257
173 222 217 217 249 205 119 237 144 127 225 228 215 227 159 178 210 159 115 152 137 160 132 106 160 107 164 163 201 157 175 236 247 243 263 261 294 288 327 310 299 291 282 279 273 271 268

GFSGBSN_2pvu_pres_063.txt.gz
Presure
122 119 123 119 122 115 121 125 128 127 126 139 142 134 158 131 144 130 131 132 121 146 186 162 123 160 117 162 148 389 515 424 404 401 386 383 350 352 341 309 313 311 278 293 182 231 193
144 143 124 125 121 120 119 124 129 126 127 135 121 190 157 141 143 120 129 244 170 150 185 136 173 147 120 157 148 297 522 418 400 404 384 377 343 352 334 312 311 300 277 295 294 242 186
119 112 122 118 117 118 118 121 128 127 133 142 147 143 131 146 133 159 167 151 149 135 171 166 170 160 219 151 122 487 133 415 398 392 396 367 340 352 340 316 295 312 274 280 274 193 192
128 127 113 117 116 117 118 121 118 126 131 131 137 137 118 146 153 142 148 134 142 139 175 146 112 142 151 146 247 125 478 411 401 397 391 360 333 353 334 309 303 286 280 281 265 186 193
197 148 120 111 124 118 114 121 122 130 133 129 105 149 151 143 136 165 114 145 149 172 151 176 124 150 147 339 113 333 494 404 387 403 370 350 328 356 333 317 304 294 300 278 270 273 254
186 173 165 125 206 118 127 222 117 123 122 124 124 145 132 140 154 122 143 153 171 161 170 149 165 143 149 115 110 433 458 405 385 386 359 348 329 331 322 315 312 299 294 292 277 282 212
171 204 205 140 127 175 118 130 124 124 126 126 127 143 131 142 131 128 220 161 149 217 206 134 157 146 422 432 441 349 422 444 384 384 358 343 323 338 322 372 303 292 290 287 280 267 252
171 224 145 179 128 126 182 122 128 124 128 123 128 146 176 142 133 154 141 129 148 194 179 166 167 145 141 440 320 377 480 411 378 399 345 337 320 310 328 328 300 285 283 285 282 277 273
207 163 162 181 212 134 181 126 199 118 123 126 138 143 145 138 123 159 161 173 153 146 127 152 132 141 449 425 217 454 424 399 379 346 326 327 317 308 309 308 347 293 281 295 278 280 282
218 185 184 183 226 183 201 193 171 192 126 178 137 144 142 133 133 157 218 149 129 130 163 151 137 186 433 383 445 419 369 352 342 340 322 308 326 314 307 304 337 353 293 277 287 287 286
264 258 241 220 226 184 189 199 130 121 136 134 136 150 144 133 137 199 138 132 160 162 164 126 140 432 441 134 391 220 346 330 314 315 334 302 308 293 327 302 302 287 333 304 298 264 278
298 264 207 264 190 184 215 187 186 168 135 145 140 139 184 134 167 203 140 154 138 141 133 131 134 413 408 414 114 281 342 327 310 319 316 317 313 291 290 311 303 295 274 304 287 278 296
237 236 189 244 238 224 177 187 187 190 129 137 135 128 142 141 137 138 165 163 136 150 140 155 159 172 417 410 263 342 317 322 317 299 301 310 302 290 299 311 311 302 320 307 275 270 292
231 296 248 244 179 211 247 186 185 193 161 177 138 124 140 142 136 217 147 159 136 144 146 170 133 293 215 386 362 346 319 308 302 301 302 311 307 319 293 319 316 293 288 304 275 293 278
621 294 288 263 168 171 230 135 182 204 122 131 142 125 139 132 128 125 133 143 146 149 122 129 143 175 406 214 222 335 321 319 302 310 297 318 297 298 301 330 294 309 281 276 298 292 286
241 436 239 236 172 239 184 262 234 176 158 131 147 125 153 236 126 155 209 135 136 141 157 132 128 166 196 402 358 345 330 308 307 306 297 296 293 297 286 289 320 277 286 272 264 282 267
368 256 239 251 242 173 212 184 251 202 239 133 142 165 159 163 131 183 207 143 136 135 139 135 133 160 169 383 381 334 327 330 314 316 299 295 288 286 288 276 297 330 316 297 277 264 261
483 261 244 255 188 176 253 184 253 184 207 142 184 171 151 144 151 139 214 140 127 134 110 201 128 153 342 115 345 400 361 344 305 301 312 295 283 275 278 306 299 309 304 291 278 293 290
469 255 286 247 222 169 180 206 240 247 195 205 210 180 130 136 141 139 141 119 137 147 126 144 145 185 147 177 198 301 339 325 316 205 288 287 272 278 272 323 292 295 307 290 287 284 279
422 255 247 255 180 174 181 213 246 201 212 224 211 235 131 235 128 151 186 135 131 128 125 127 106 162 170 147 335 116 292 323 252 254 295 287 288 285 296 278 276 282 293 292 283 275 279
255 247 237 256 172 179 179 243 233 244 188 165 191 215 131 164 137 186 127 156 161 129 123 123 115 131 118 127 157 328 322 322 305 304 288 281 286 272 278 278 288 272 280 287 283 274 264
246 238 242 238 188 164 180 219 236 191 212 237 187 126 236 137 136 229 151 170 134 128 123 134 120 218 151 172 272 342 176 187 311 302 303 288 289 285 276 288 283 297 261 262 291 273 273
297 240 241 242 164 225 188 198 204 188 178 185 196 130 231 154 139 176 200 181 152 128 161 125 120 188 154 168 202 131 309 134 282 318 305 296 305 292 292 289 287 269 280 271 271 286 242
254 248 253 248 180 194 212 234 198 211 198 219 177 122 196 140 133 143 162 166 163 147 129 144 115 149 135 143 143 184 139 123 321 266 308 200 301 291 287 284 273 279 274 273 273 271 275
249 267 200 193 188 187 249 194 229 217 202 124 233 145 138 127 144 127 177 131 178 146 170 116 127 161 118 136 109 107 165 262 243 126 332 315 307 305 299 300 294 287 287 292 289 268 275
247 242 243 244 186 234 159 212 207 172 209 233 125 136 150 226 229 174 221 149 174 136 123 168 132 116 133 132 116 112 153 181 234 254 268 156 277 314 317 297 293 296 282 286 284 281 274
245 248 253 207 141 216 219 207 229 203 175 121 134 135 164 175 168 159 189 158 132 162 129 121 133 119 150 134 142 106 172 140 158 240 211 250 273 275 159 262 315 301 287 279 283 286 300
243 236 182 135 225 139 203 203 213 256 131 119 154 218 159 227 216 187 173 138 120 129 141 163 145 205 112 167 108 162 160 143 142 207 269 170 257 255 290 258 319 326 310 296 288 279 272
178 173 181 207 202 218 199 211 155 196 139 126 215 224 229 226 217 214 150 203 167 158 153 231 136 124 129 170 158 144 160 112 166 112 258 235 189 251 262 248 288 260 339 307 307 295 284

GFSGBSN_2pvu_pres_069.txt.gz
Presure
191 147 163 186 176 179 172 185 201 127 130 134 123 122 139 122 126 122 141 124 150 118 154 125 135 120 138 162 187 158 164 148 163 180 123 147 324 304 309 383 353 367 323 306 338 299 289
157 192 158 184 181 163 174 138 183 117 182 133 128 143 136 130 129 122 129 125 138 143 149 114 149 135 148 150 184 191 142 170 152 165 162 220 292 122 382 379 364 375 321 328 318 303 288
195 190 185 154 201 190 187 166 157 149 159 131 131 130 127 124 125 119 123 121 142 123 147 136 143 143 189 150 163 170 135 125 137 147 410 110 117 129 372 336 332 336 305 291 306 286 303
205 201 192 206 203 205 172 202 208 158 123 118 131 129 122 125 130 118 114 127 131 126 155 131 128 151 136 184 165 145 150 161 198 422 391 167 126 327 337 331 343 310 295 283 290 290 283
241 214 219 281 229 218 217 206 127 210 128 127 126 133 135 120 127 117 112 138 131 140 138 121 136 173 191 158 158 172 154 167 461 413 235 126 304 353 343 322 325 297 292 293 295 276 305
292 326 226 296 284 276 237 252 254 136 227 135 149 134 131 115 116 134 118 132 141 133 114 141 150 158 176 144 124 151 151 460 484 405 119 388 360 353 355 313 301 289 292 335 283 283 322
240 213 134 312 284 236 272 230 248 243 167 166 177 134 133 131 119 130 124 132 215 131 139 120 150 182 152 176 150 161 459 470 489 113 381 383 345 356 340 347 298 291 287 284 272 252 275
219 217 304 213 164 297 215 230 256 268 269 219 207 250 218 242 160 131 129 136 140 133 120 143 185 138 141 161 158 380 466 482 201 327 364 376 348 357 320 316 310 303 309 293 280 259 261
261 190 235 210 240 241 326 216 295 200 270 309 171 174 187 205 137 127 130 168 183 126 138 157 153 143 155 155 156 171 477 478 111 150 351 363 355 332 333 297 303 296 271 284 271 268 279
278 269 207 278 226 249 329 215 350 266 247 313 260 281 235 232 187 209 131 203 130 142 161 158 150 168 160 142 151 399 419 395 353 262 343 357 349 327 342 311 292 284 280 287 285 265 255
291 310 313 267 201 234 315 349 201 249 242 221 182 177 200 184 170 133 137 137 129 121 170 148 187 142 121 142 170 388 375 374 345 361 379 328 335 315 290 295 302 297 276 281 275 264 260
202 256 404 336 221 579 637 438 370 253 254 295 233 238 235 189 126 217 135 131 131 135 192 145 143 145 147 139 297 161 379 312 347 346 353 325 329 319 311 281 275 275 281 282 278 270 258
377 278 445 521 537 515 565 663 281 205 212 283 245 182 201 250 126 167 142 130 113 144 140 200 164 126 164 145 223 147 337 354 344 353 357 323 324 297 284 319 284 273 264 257 259 277 271
438 427 483 471 450 460 500 349 480 251 242 259 174 256 209 187 196 175 124 127 146 151 145 151 154 171 165 146 203 361 340 148 355 198 324 303 303 319 298 311 286 277 281 272 253 252 250
417 440 451 432 422 426 440 271 433 252 263 277 245 258 180 235 241 181 133 135 114 160 139 146 156 151 137 131 138 218 351 294 333 315 304 301 303 318 295 292 303 293 265 258 271 269 256
420 457 442 436 425 334 455 452 278 258 234 217 179 251 247 205 128 148 130 149 172 144 143 161 174 156 140 124 130 137 258 329 176 304 305 281 297 312 301 296 311 282 293 269 269 261 262
433 526 438 425 431 460 268 413 262 251 236 247 262 250 239 192 136 134 168 160 157 190 136 162 143 150 148 123 119 160 325 131 304 182 297 288 286 291 305 328 299 319 282 286 283 275 270
447 524 433 432 437 476 430 260 255 236 244 257 249 241 207 231 201 129 130 127 132 134 144 164 157 134 109 134 117 132 322 145 320 306 120 301 303 292 297 295 315 301 300 369 296 269 277
463 529 445 406 452 313 253 254 250 253 247 236 235 193 162 180 184 165 208 134 139 131 249 134 144 132 150 132 172 144 117 314 150 230 271 273 294 296 300 300 296 320 332 307 288 296 296
489 464 458 294 318 310 262 245 242 251 255 239 206 233 217 188 141 196 136 146 145 139 159 150 169 139 157 165 139 130 316 136 315 110 304 137 249 280 296 295 297 297 318 349 316 289 320
511 472 282 323 273 236 262 251 239 248 247 242 238 185 211 132 194 182 139 132 164 142 158 167 150 160 124 171 118 144 118 284 203 309 116 140 293 156 286 290 294 303 297 303 341 333 310
532 490 404 301 284 258 265 261 254 242 238 234 175 230 157 219 205 142 140 132 164 201 133 154 168 142 148 159 141 104 121 167 263 174 161 143 220 118 314 317 312 303 308 309 317 286 335
369 355 346 269 260 251 245 250 258 243 241 225 233 195 213 198 196 155 127 133 148 134 129 142 173 183 180 165 155 112 119 135 189 123 131 249 118 233 120 320 325 316 300 302 295 293 303
375 326 283 259 267 251 257 253 246 249 243 241 201 194 212 214 220 159 134 134 177 183 155 215 146 159 255 143 145 141 171 106 174 204 232 213 181 198 144 186 260 315 316 318 307 315 316
304 279 276 249 253 252 214 244 192 245 229 178 192 172 210 209 147 122 139 131 210 167 179 142 204 171 167 147 146 172 150 166 131 132 129 195 111 123 154 256 213 261 188 294 284 305 304
272 271 255 269 237 249 251 258 246 194 240 216 192 191 174 227 132 131 141 226 220 173 152 196 165 106 178 183 152 154 128 122 228 221 116 173 163 169 240 168 207 254 237 226 259 271 305
264 286 262 242 259 225 257 193 174 179 224 183 234 179 157 139 188 161 203 166 167 194 142 158 156 132 161 224 219 211 146 143 142 163 148 109 224 196 179 210 160 226 220 212 263 162 258
260 256 240 274 249 201 254 195 218 212 206 187 187 175 189 190 132 135 178 180 188 204 160 190 146 178 170 231 146 145 166 144 235 151 154 154 129 232 159 222 201 190 266 258 252 246 255
253 249 272 236 250 258 238 241 202 221 209 191 217 191 128 132 220 219 205 212 185 150 205 148 195 161 186 147 180 161 151 173 152 117 229 107 162 186 161 211 224 211 225 236 248 249 258

GFSGBSN_2pvu_pres_072.txt.gz
Presure
191 173 187 194 165 174 165 201 164 179 167 185 127 180 158 139 176 128 140 150 129 116 138 140 123 130 131 141 162 121 129 156 213 168 180 187 153 156 135 156 117 124 384 365 330 350 342
205 204 188 205 203 207 195 194 175 163 154 172 144 173 185 189 137 144 187 126 131 117 131 118 119 152 133 151 136 134 135 203 177 144 139 135 143 165 175 169 414 159 322 355 320 313 307
230 268 221 276 277 277 228 217 219 227 222 212 229 233 158 188 141 145 149 124 127 119 137 129 135 129 155 125 127 145 165 183 221 155 135 139 141 137 113 372 419 119 342 337 324 305 291
245 259 277 243 148 292 253 272 279 159 241 242 241 194 189 131 194 134 127 130 123 119 138 113 121 131 131 129 125 154 229 139 155 161 161 162 221 390 368 347 383 323 135 325 311 287 295
239 243 247 214 229 258 245 210 282 216 188 302 182 220 199 256 130 140 124 126 120 131 119 122 134 152 135 139 145 224 167 140 125 158 168 432 387 380 351 273 236 321 360 319 294 291 288
246 222 269 265 276 284 271 278 264 280 297 253 175 302 274 126 222 144 127 125 120 123 122 127 119 135 123 141 154 155 173 151 160 165 178 421 373 117 290 327 378 336 360 312 286 276 298
173 197 181 266 267 273 276 283 272 244 245 212 303 340 269 340 160 203 122 119 122 120 120 126 147 148 142 152 147 168 151 152 161 182 403 401 117 116 338 337 356 343 305 290 285 262 300
266 268 264 269 257 263 273 229 213 287 206 296 321 335 250 150 128 126 153 176 174 172 125 137 123 132 129 207 207 153 149 153 182 407 396 314 117 308 329 340 318 318 290 289 280 281 275
268 273 202 273 275 254 208 285 201 244 286 221 271 154 230 209 228 208 253 119 274 123 134 145 134 131 229 164 138 151 151 301 174 391 380 374 351 334 346 329 311 301 278 280 273 267 275
274 274 258 291 222 277 311 329 338 312 324 315 235 344 318 296 223 265 241 265 164 221 140 167 133 157 141 165 139 153 152 162 406 373 371 350 345 338 325 308 294 297 287 295 278 269 265
265 284 309 326 363 371 410 446 456 203 424 371 353 269 283 308 259 244 216 263 185 212 211 235 147 168 165 211 149 160 156 391 371 360 363 348 344 336 303 304 295 267 297 304 291 284 283
274 319 366 431 435 425 452 503 491 521 565 215 286 342 246 140 242 257 227 173 129 163 182 137 133 207 135 156 144 156 144 360 364 355 361 349 339 340 312 290 297 278 281 264 280 269 271
315 420 410 421 408 423 449 441 431 451 nan 396 241 319 177 244 232 261 226 130 198 149 148 143 171 193 133 127 140 149 149 369 309 362 343 321 320 292 307 278 286 280 273 268 265 258 268
398 413 408 412 418 461 426 422 410 465 575 444 208 251 204 246 257 251 208 131 249 156 166 121 164 168 177 138 129 149 150 219 363 337 336 306 315 290 277 291 289 283 272 260 272 262 262
436 410 419 413 430 466 426 423 423 500 528 437 257 190 253 244 189 221 144 202 155 178 117 154 146 192 138 224 141 149 134 149 335 277 323 307 305 294 281 273 298 283 277 246 276 286 258
424 424 419 430 543 431 422 426 487 508 303 263 261 250 166 255 183 246 232 248 125 133 172 343 143 137 202 145 135 120 227 244 271 262 321 268 298 305 293 282 277 281 268 276 270 262 273
431 424 436 488 450 434 410 415 428 282 262 261 236 240 167 196 206 240 212 178 139 205 187 189 144 192 158 158 117 156 132 136 192 166 309 141 252 297 298 301 289 288 292 298 271 267 270
436 443 461 472 431 431 407 382 229 249 245 254 251 253 247 237 233 239 239 216 118 152 128 141 146 164 137 126 149 159 121 128 155 138 300 137 310 335 303 291 283 269 264 274 291 261 273
450 462 484 456 423 432 341 284 271 255 251 247 236 243 239 232 224 233 135 204 164 161 156 152 145 200 145 275 182 116 126 142 118 258 142 303 294 129 171 309 279 292 288 280 278 271 274
466 488 525 452 442 315 283 267 231 264 245 171 242 230 174 227 233 160 142 134 181 200 180 142 165 181 178 195 155 234 129 143 132 140 219 247 233 216 306 313 340 330 325 308 296 287 283
487 514 538 452 308 288 266 256 262 256 251 250 246 233 206 228 229 180 137 162 233 221 152 141 156 185 165 132 152 160 153 164 130 321 140 300 204 303 307 291 311 294 320 365 324 311 297
508 527 557 316 240 269 255 277 264 253 254 250 233 226 233 222 230 195 239 146 142 146 137 150 150 152 213 154 157 112 141 110 132 121 115 319 155 131 301 209 349 335 335 307 295 295 374
528 302 291 301 275 278 277 262 264 257 251 222 235 234 200 200 175 172 219 144 189 139 158 135 163 143 213 152 186 147 167 110 121 157 254 111 131 244 229 247 200 153 315 330 276 327 310
551 393 252 288 280 230 275 271 254 249 241 236 227 229 199 189 198 132 180 180 142 197 167 157 163 157 148 205 210 183 174 121 136 136 231 155 235 131 248 250 219 243 256 257 284 315 328
578 288 277 252 280 240 266 226 244 250 223 183 226 200 204 208 183 222 180 157 137 142 160 141 174 204 142 221 180 177 169 148 164 104 142 185 142 224 145 129 182 200 225 230 240 247 274
308 305 244 255 282 258 257 267 242 233 226 192 201 182 224 209 160 185 153 141 140 162 192 196 157 199 147 145 185 153 166 168 191 154 133 112 178 217 137 178 211 212 220 99 217 211 120
280 255 260 283 250 261 257 256 244 200 195 217 210 180 198 209 223 160 140 140 141 201 134 195 150 146 154 185 196 161 157 178 142 154 155 140 177 124 148 179 221 222 228 223 242 246 240
277 253 272 235 273 266 189 246 168 218 232 212 202 205 194 223 150 150 168 139 188 206 200 176 198 156 153 170 182 180 178 140 164 167 156 177 126 163 218 174 207 215 226 237 237 235 241
258 268 253 234 269 206 257 241 223 215 177 183 214 210 216 150 135 207 205 137 202 200 198 190 146 197 149 196 171 178 178 163 163 205 152 124 125 178 155 130 186 223 117 228 219 226 224

GFSGBSN_2pvu_pres_075.txt.gz
Presure
162 221 246 263 234 231 234 247 276 272 225 230 218 229 218 178 231 184 172 219 162 145 149 120 131 123 114 126 136 142 191 133 166 132 138 159 189 280 217 166 161 151 139 141 159 131 148
195 258 268 261 184 251 178 239 261 253 219 264 273 273 265 188 202 180 134 191 218 146 183 165 130 116 128 138 130 202 145 142 136 148 145 185 256 224 153 149 136 145 153 162 175 159 169
205 289 279 267 260 247 251 248 260 243 225 225 282 274 287 185 257 211 173 217 193 151 157 133 126 126 125 139 142 139 127 154 136 159 172 260 205 163 136 134 142 144 178 299 185 191 353
210 202 283 268 205 260 264 244 249 247 245 246 275 244 280 280 290 303 290 185 244 240 151 126 127 122 132 127 146 127 153 132 159 158 257 162 180 163 175 173 144 180 150 203 243 361 341
201 224 266 282 266 268 268 237 274 216 232 242 250 237 278 283 282 236 304 331 251 252 128 129 126 129 124 141 141 253 127 159 149 235 158 156 143 176 173 180 241 375 410 422 366 355 316
234 248 274 257 269 271 258 270 251 289 281 283 282 293 298 292 305 309 243 246 151 129 128 126 121 138 134 129 155 114 152 146 184 158 149 170 170 181 180 327 355 397 417 373 360 322 325
245 273 268 280 286 273 267 271 280 272 281 286 297 305 273 307 297 315 254 129 199 126 124 128 128 143 146 144 201 132 136 266 136 157 157 133 168 184 209 350 119 335 346 357 317 328 291
257 274 280 300 286 280 284 279 261 211 287 268 285 295 236 234 314 252 169 291 315 131 272 179 127 135 137 154 137 156 266 149 156 168 166 194 192 345 165 346 339 321 366 330 299 294 286
265 280 294 294 270 288 281 313 330 347 352 352 285 315 217 258 270 152 260 261 124 205 258 228 215 159 129 155 150 143 151 153 156 167 182 200 347 327 332 344 377 348 336 296 298 290 283
279 314 308 306 322 390 401 408 397 401 401 412 394 358 347 356 319 215 297 134 165 198 248 131 156 220 136 125 140 191 157 170 137 169 190 346 337 322 325 361 308 339 314 291 281 291 264
299 306 330 378 395 418 417 404 390 398 411 425 458 281 395 334 275 284 242 244 238 265 260 143 154 141 155 154 155 150 154 152 158 169 363 337 332 326 343 307 337 301 295 288 277 282 290
267 339 385 389 418 425 411 405 404 409 438 438 455 536 412 400 352 214 273 257 170 200 226 158 194 177 140 160 131 151 142 157 154 330 346 342 334 330 323 316 306 297 285 281 269 270 280
333 389 385 406 449 431 426 424 437 458 407 423 454 395 499 267 280 158 138 122 239 274 171 144 161 175 146 188 135 150 158 244 155 368 141 337 323 314 299 306 296 296 280 267 272 266 256
386 386 398 449 434 437 457 469 452 409 417 435 475 644 373 264 254 244 159 265 216 180 221 187 159 140 142 169 130 142 155 156 256 306 327 329 320 296 292 294 287 282 298 281 274 270 279
387 401 426 442 456 496 408 404 397 417 472 472 304 272 266 274 265 189 206 127 246 203 219 149 131 127 156 173 136 126 169 150 138 244 126 292 229 289 280 292 281 281 279 274 266 261 280
394 404 451 468 488 408 391 388 428 444 367 308 283 262 272 266 186 261 159 115 211 129 318 201 143 138 163 176 135 156 266 140 184 152 310 189 306 273 288 281 276 281 285 285 255 276 269
410 427 468 489 424 404 390 427 333 300 286 279 260 261 261 251 153 244 244 187 192 162 141 183 158 181 173 178 118 130 137 152 236 148 202 144 250 279 278 283 281 277 271 292 278 271 268
416 464 487 504 412 415 366 297 291 284 273 253 268 134 253 258 251 237 207 183 128 364 112 129 140 181 160 344 139 132 123 146 129 144 135 141 145 303 288 133 289 294 269 263 273 268 265
434 485 498 471 438 312 295 291 279 278 254 245 257 250 249 249 239 174 167 193 181 127 156 149 143 145 167 170 256 126 125 127 130 136 139 179 147 203 185 305 136 274 309 283 279 276 262
462 505 511 400 310 295 291 270 275 242 269 253 249 221 247 232 222 233 209 169 238 138 164 150 135 152 112 255 132 163 132 163 127 153 137 145 282 164 240 307 161 221 292 323 310 284 281
495 520 296 299 303 296 278 283 260 268 257 251 249 243 234 245 244 198 199 228 142 192 148 165 137 175 228 185 180 159 328 134 128 273 116 140 138 143 165 142 227 168 307 302 292 142 326
516 494 250 268 287 272 288 260 266 252 254 251 243 240 161 220 131 241 227 270 147 139 169 141 177 137 173 161 175 148 189 150 135 167 105 229 199 294 297 139 332 338 373 298 304 298 287
353 284 281 283 280 263 277 265 253 244 251 240 239 217 236 209 224 238 165 146 151 142 175 142 210 160 195 203 194 176 156 176 214 143 105 112 131 156 118 162 172 210 262 273 190 322 199
286 297 271 271 276 280 225 244 247 244 242 239 228 235 226 200 231 227 214 140 208 194 143 235 151 147 185 147 131 164 164 163 174 184 150 203 176 234 230 148 207 153 245 150 236 173 257
300 241 253 279 251 283 254 186 239 249 241 235 229 233 226 225 224 206 208 144 191 147 163 144 162 154 150 137 200 186 174 160 168 145 202 118 193 181 135 234 142 231 173 233 228 227 231
258 232 236 240 141 252 260 241 243 187 231 233 180 197 157 229 215 173 208 218 199 140 147 167 161 185 174 192 167 220 187 193 155 184 160 132 238 118 177 161 155 235 227 150 238 239 238
297 254 231 240 217 269 249 237 241 231 220 203 234 212 226 229 221 139 149 213 207 143 144 153 196 193 166 167 143 161 143 219 172 170 198 158 204 129 202 123 218 235 152 130 228 240 231
260 260 232 239 144 253 227 248 230 183 218 205 141 204 227 223 226 216 203 143 192 139 141 200 166 204 132 177 172 175 146 184 204 170 143 141 141 145 150 172 157 187 192 212 208 224 227
253 249 234 232 225 224 202 244 224 215 213 198 180 193 223 160 221 213 203 136 136 139 137 168 161 178 142 142 192 183 218 220 224 170 146 150 149 122 168 181 169 102 213 221 223 227 226

GFSGBSN_2pvu_pres_078.txt.gz
Presure
201 243 226 190 200 187 238 194 265 275 281 273 271 240 223 266 242 258 273 188 141 138 160 142 150 152 126 131 135 121 127 135 140 147 145 156 150 145 148 140 150 160 217 278 285 226 221
180 227 206 217 213 214 177 198 251 235 268 218 265 266 257 270 190 244 285 257 216 268 222 192 210 166 149 186 119 128 127 140 142 149 160 255 148 117 119 158 169 271 269 284 259 175 163
131 133 225 203 216 215 249 244 258 189 280 274 255 263 266 233 279 274 261 276 258 253 273 195 164 144 137 142 133 127 128 148 144 158 144 103 137 158 167 205 276 267 174 191 160 154 152
222 211 182 207 162 188 253 260 272 277 290 273 275 254 263 258 262 271 274 244 242 215 255 251 272 135 156 136 136 132 132 135 196 139 145 147 145 165 298 238 153 258 153 137 150 143 144
155 192 243 218 247 250 254 260 274 302 299 295 289 274 265 267 237 268 276 280 286 295 275 263 290 345 136 134 132 134 134 140 137 151 123 157 161 201 213 139 170 164 151 154 137 138 148
219 232 243 250 255 256 263 271 286 301 275 294 293 290 293 271 274 274 236 244 265 277 318 307 193 192 137 129 134 142 125 143 136 150 130 154 159 146 136 162 182 189 183 189 191 368 375
231 231 248 255 263 266 282 294 311 328 336 284 298 281 299 297 284 291 294 288 298 320 290 142 352 196 138 135 143 127 141 146 156 125 143 207 145 142 154 158 182 201 195 285 505 439 371
242 253 257 264 278 297 331 338 368 378 374 364 369 315 287 305 303 284 268 281 296 289 210 141 330 141 136 141 138 138 155 152 134 144 256 145 149 166 177 201 195 241 385 395 246 377 221
238 255 272 298 327 362 371 376 377 383 392 405 405 378 351 334 334 303 304 288 284 233 140 356 236 125 145 163 141 167 151 193 149 161 191 162 173 174 192 191 348 374 373 363 318 328 320
251 271 303 339 375 376 375 387 396 399 423 429 422 430 402 381 366 306 311 305 333 189 344 137 133 135 123 266 199 155 146 133 196 227 173 171 177 192 358 347 346 326 341 342 313 293 305
274 297 343 384 376 385 400 428 442 432 419 414 396 396 394 396 390 371 356 359 318 279 271 283 144 227 289 130 155 139 154 183 155 137 163 242 275 325 328 389 351 323 310 305 290 286 295
294 348 380 375 398 412 447 450 442 442 427 421 408 404 407 424 408 199 260 322 180 241 228 147 136 165 151 217 140 133 188 136 157 157 169 284 266 325 358 326 329 296 296 284 288 283 290
356 377 384 396 420 455 439 401 392 393 392 414 423 432 431 457 513 296 355 291 252 153 200 149 187 149 273 184 152 204 167 146 165 163 333 325 313 349 317 314 310 284 288 284 272 282 291
389 385 402 426 472 406 395 394 374 374 388 383 414 425 434 466 384 307 289 140 280 290 131 205 165 229 174 129 151 159 149 141 156 158 144 308 324 305 331 333 303 284 291 284 293 283 284
400 403 424 481 411 403 388 379 373 392 428 417 454 454 452 294 307 295 284 287 239 143 131 203 144 158 119 115 167 156 125 143 136 151 288 198 318 297 305 302 295 275 280 272 279 274 280
403 425 460 453 407 401 392 372 413 491 411 442 325 317 300 288 294 204 266 242 214 166 234 221 250 229 138 147 186 141 141 142 152 144 163 152 218 233 301 289 290 283 282 268 280 276 297
429 450 510 423 317 379 308 292 299 299 305 296 242 261 291 274 261 248 180 186 276 195 258 172 163 140 142 178 175 151 128 136 132 156 208 150 161 122 272 297 287 277 285 278 277 262 251
453 484 519 432 305 299 279 273 289 290 286 250 279 247 211 258 149 265 308 310 298 220 193 134 136 146 168 194 194 190 131 138 135 149 159 163 119 154 145 194 308 299 278 289 275 268 268
489 518 409 244 266 284 286 279 287 265 259 234 258 258 251 261 280 183 212 169 214 150 126 134 177 138 166 195 174 168 151 123 118 165 295 163 117 160 139 138 195 286 269 290 307 281 274
523 316 256 290 293 251 268 269 261 226 249 253 252 279 239 233 196 335 212 381 163 162 152 134 143 171 167 203 141 185 238 121 123 114 128 120 191 114 228 112 204 288 212 158 277 284 285
246 246 250 296 275 265 225 250 238 266 258 187 219 306 280 206 254 263 193 179 329 138 143 168 135 238 307 123 169 261 279 159 137 115 280 122 112 285 144 142 189 260 140 291 181 284 275
245 214 249 240 294 229 243 268 255 250 241 269 242 168 201 194 219 275 179 204 155 152 188 141 161 177 161 196 162 214 175 135 128 132 247 123 113 119 144 124 150 305 139 329 331 300 291
237 276 278 240 241 245 229 255 250 243 263 247 264 208 214 260 193 225 232 188 144 262 164 143 157 142 198 164 183 178 161 157 183 143 251 244 247 147 240 202 215 148 151 206 233 279 266
239 255 243 251 217 245 251 250 241 237 229 213 211 221 228 245 229 253 244 132 140 142 150 157 186 199 151 145 159 224 172 190 249 174 205 128 122 134 167 192 156 240 248 253 191 178 221
223 221 241 249 248 253 253 242 227 223 210 198 174 232 229 216 191 201 160 221 232 179 142 198 177 164 162 151 218 150 215 155 171 164 164 210 175 137 162 228 231 103 241 144 217 226 225
240 247 246 255 136 244 157 243 230 231 193 214 239 239 223 219 237 214 203 207 148 145 148 151 144 163 155 194 241 174 234 210 238 168 167 162 135 213 148 199 228 238 144 231 232 215 232
263 265 243 258 229 158 242 228 228 172 217 181 222 226 230 168 246 220 210 201 214 203 165 142 172 145 193 205 162 180 175 198 175 218 173 215 151 156 114 183 202 194 96 138 191 169 148
247 212 243 241 244 178 240 235 162 197 214 219 224 225 225 219 213 212 211 188 214 139 138 179 144 170 199 144 148 172 192 156 177 188 211 163 179 138 128 110 158 141 110 166 157 218 228
143 202 263 259 244 142 203 245 205 172 182 203 225 223 226 214 198 209 213 139 156 134 146 143 196 181 158 151 154 151 198 155 224 163 214 190 144 132 136 162 130 185 118 212 104 210 223

GFSGBSN_2pvu_pres_081.txt.gz
Presure
181 209 200 195 194 205 208 233 166 253 255 221 235 260 209 252 205 211 295 283 280 241 251 250 235 146 143 144 130 141 151 110 121 120 138 137 136 136 143 166 138 123 140 123 124 133 150
206 193 179 222 200 194 239 191 225 180 194 197 223 183 201 195 260 267 192 288 253 269 276 260 226 186 181 138 192 138 139 119 122 128 141 139 147 140 142 177 133 133 126 146 139 150 132
192 204 220 223 229 227 244 232 249 240 246 201 253 266 251 256 264 269 281 294 279 270 270 282 280 154 217 247 312 265 138 142 137 260 132 139 152 155 136 145 160 136 140 140 139 133 137
202 217 153 222 223 240 247 251 250 249 249 253 201 266 260 272 268 269 280 297 279 276 273 265 266 284 188 315 296 280 141 120 276 171 137 125 232 136 138 154 114 134 141 140 137 172 268
219 215 217 231 249 256 257 255 256 260 264 266 266 278 279 281 285 287 289 301 281 274 268 270 275 285 287 303 236 271 145 199 137 229 148 155 141 142 150 142 141 216 155 216 267 265 243
224 218 229 245 267 267 268 275 286 292 296 296 308 307 309 301 299 293 295 298 288 277 275 274 279 277 283 312 147 132 144 222 145 146 125 137 136 148 120 138 153 159 240 274 158 151 162
222 225 235 269 277 284 308 331 341 346 354 356 353 349 360 328 321 315 299 304 290 285 276 281 283 292 285 145 130 282 355 304 157 131 131 145 144 274 126 144 158 171 143 142 141 141 149
232 232 272 287 306 360 364 360 365 371 377 375 380 375 367 364 355 344 329 313 296 289 275 286 280 266 278 274 320 140 141 162 134 125 131 151 140 137 141 193 179 146 141 150 150 150 237
237 276 295 329 372 375 379 375 383 384 395 402 400 397 378 371 369 352 345 321 301 292 295 292 233 275 161 229 126 280 147 128 125 150 155 132 135 337 163 145 143 158 170 164 191 191 298
288 299 340 384 389 384 395 396 404 425 428 429 427 435 425 397 381 368 357 332 314 299 298 306 301 140 129 343 161 125 137 162 139 153 163 152 366 173 151 153 157 199 219 331 384 377 378
307 354 393 392 397 402 411 430 424 419 419 425 415 412 402 412 428 427 380 348 328 291 275 278 235 302 142 144 129 128 137 160 157 151 157 170 162 158 170 205 358 377 326 339 327 325 341
359 395 399 407 409 438 436 380 368 376 379 379 392 417 401 387 397 403 401 364 319 328 265 239 268 237 154 122 138 194 113 135 144 212 156 143 167 177 196 315 350 335 313 304 293 306 297
401 410 421 423 466 387 384 375 373 373 369 374 377 399 399 382 386 391 350 310 330 352 300 223 119 136 181 142 141 329 159 147 237 141 155 163 165 369 334 142 306 298 292 279 290 291 290
419 435 443 486 376 386 370 373 376 368 370 368 379 404 411 389 389 385 324 253 350 177 295 110 133 157 140 166 143 149 150 203 161 155 137 147 343 318 311 311 300 274 299 282 279 300 298
452 466 502 403 399 382 390 401 416 403 433 454 390 426 415 391 198 388 135 327 241 287 133 158 140 182 201 288 148 136 184 141 142 157 158 146 343 299 307 289 279 282 284 272 293 277 271
475 500 424 352 390 402 417 416 424 441 458 462 458 458 370 314 273 200 280 218 259 248 261 138 138 236 288 187 136 135 173 131 139 151 129 247 234 139 201 289 296 295 288 272 272 292 271
464 443 316 315 313 314 310 290 308 301 328 318 321 276 312 300 181 291 273 243 250 200 150 126 163 163 200 144 142 201 161 131 158 130 125 134 139 137 145 234 293 264 282 275 286 275 265
268 225 324 304 286 277 250 297 287 282 275 273 273 265 271 118 230 193 265 270 261 312 317 151 172 233 140 147 170 185 181 133 140 136 109 200 139 268 147 127 184 278 279 289 164 260 269
213 226 244 249 288 266 267 243 216 228 263 261 160 220 288 290 275 222 286 290 271 268 378 152 132 139 127 152 168 189 160 148 123 135 126 156 165 254 162 254 236 150 166 202 284 287 262
227 228 239 275 276 265 270 257 259 225 263 297 240 272 235 323 199 325 274 213 176 182 125 129 167 142 231 195 292 264 145 140 122 120 117 136 114 127 111 181 133 132 146 176 142 284 263
180 263 250 274 269 258 274 251 247 226 259 323 186 185 185 186 208 212 302 251 130 121 132 164 135 183 167 274 150 274 221 238 230 126 120 115 116 120 109 114 142 284 102 273 289 179 280
218 248 266 265 255 265 244 246 240 252 277 281 186 293 320 386 402 301 318 199 300 132 141 140 150 131 170 267 188 192 152 258 171 171 160 156 270 113 136 123 112 104 321 318 147 149 302
229 267 225 240 244 250 238 233 259 132 211 220 141 219 193 218 220 245 166 131 139 161 154 143 155 170 166 165 158 234 221 206 214 172 167 186 159 242 136 167 172 145 103 253 168 236 254
226 254 224 231 238 247 210 226 202 268 236 211 179 253 265 256 257 169 196 133 151 162 140 156 174 195 165 160 142 164 211 162 165 233 163 172 177 173 215 114 109 177 166 187 257 123 223
230 252 243 241 213 190 209 203 239 236 233 255 229 243 256 235 243 233 157 134 161 141 152 162 165 211 204 169 227 198 193 171 180 168 155 171 155 139 154 174 135 216 226 215 232 139 241
254 233 234 210 217 154 199 230 197 169 175 166 219 209 195 200 214 160 208 142 140 143 149 145 186 150 169 160 192 184 149 175 193 152 222 162 201 151 132 127 121 130 149 143 129 143 223
221 237 225 232 216 205 226 204 212 223 209 200 207 217 200 222 197 210 198 175 185 141 139 158 140 178 183 161 163 196 104 185 168 201 150 162 168 166 152 118 139 145 162 171 157 140 92
226 203 230 220 217 207 178 193 186 210 222 224 216 221 224 223 212 210 206 172 168 135 153 133 177 183 163 194 154 155 193 208 196 195 176 152 174 167 146 129 177 107 115 115 137 103 171
283 162 253 225 219 177 188 162 207 193 207 224 212 217 213 217 193 212 213 205 141 197 150 207 194 149 161 158 187 151 205 176 188 183 171 205 197 158 169 147 135 140 121 173 150 139 215

GFSGBSN_2pvu_pres_084.txt.gz
Presure
173 186 182 201 199 212 212 180 180 231 189 221 252 190 187 229 240 241 226 223 205 251 263 265 262 250 246 230 300 136 135 142 166 140 123 159 122 126 141 143 146 184 150 213 168 98 111
193 192 192 194 160 169 230 233 237 198 229 251 255 246 258 245 241 259 177 259 219 230 223 230 236 283 281 310 220 170 135 141 136 157 126 120 120 137 135 132 125 153 154 133 141 136 135
198 204 210 214 218 215 211 236 184 255 256 255 257 269 256 259 252 214 250 226 243 250 253 231 217 167 270 236 289 287 208 136 140 265 148 147 127 118 112 138 137 156 218 182 111 132 127
194 206 211 232 237 244 249 253 254 263 266 267 267 264 267 268 258 256 256 242 246 259 266 252 222 271 222 297 285 289 137 162 146 137 155 148 126 123 134 136 149 139 134 153 110 167 135
212 230 222 250 251 256 265 274 281 285 289 295 291 233 282 281 269 271 269 263 247 262 269 258 216 274 290 294 287 285 294 270 177 289 149 161 198 149 126 215 139 153 134 124 161 126 138
208 247 255 267 283 299 317 322 352 356 364 369 364 358 352 339 326 306 287 275 270 274 272 277 295 299 292 291 288 288 291 301 248 283 137 192 261 145 340 125 130 136 135 149 146 152 144
267 276 290 345 380 388 387 392 386 391 384 387 380 378 370 357 341 328 322 307 300 299 290 295 291 293 295 289 288 195 288 310 308 324 152 359 142 306 138 136 137 131 149 126 141 135 138
284 333 402 400 400 401 403 403 401 400 400 402 395 394 377 372 369 358 341 323 313 302 299 297 296 302 289 284 221 296 291 232 131 158 136 143 136 125 130 135 143 253 153 152 170 152 151
313 254 398 406 412 417 406 405 395 405 409 405 402 412 414 390 371 365 354 359 349 326 315 295 295 294 289 291 294 304 278 125 150 129 306 159 130 136 140 149 153 154 158 140 142 153 230
365 225 410 423 428 423 422 411 383 391 379 387 404 410 420 420 396 376 356 350 348 364 339 307 307 306 159 295 303 166 267 149 221 165 136 134 134 147 156 138 137 141 186 370 376 206 150
408 229 348 410 467 443 369 356 360 359 358 372 373 391 401 409 419 374 364 360 352 349 351 318 312 287 119 293 228 131 133 140 131 132 136 148 154 138 152 150 358 144 150 149 141 148 143
246 487 488 409 383 364 364 366 371 364 371 370 360 374 413 396 399 385 358 349 352 284 334 317 126 201 205 122 238 172 185 180 231 146 139 133 152 149 165 146 155 152 157 210 209 324 316
487 436 418 406 407 414 399 361 354 365 383 375 354 380 405 388 404 395 357 350 350 302 115 220 288 166 208 178 134 132 183 142 146 222 157 189 196 165 141 162 233 301 299 296 238 296 298
205 312 390 371 356 382 385 412 378 401 391 425 358 389 397 400 381 357 166 370 349 253 309 298 125 226 158 183 129 186 145 155 143 152 196 145 153 181 300 304 300 302 298 289 293 302 293
246 244 243 282 331 336 343 473 527 432 446 457 152 315 316 396 381 373 351 346 313 287 190 286 246 196 120 135 178 139 342 190 155 172 145 152 149 158 289 300 287 147 282 297 293 296 296
253 204 263 247 265 268 278 323 341 365 445 466 475 422 291 364 120 301 273 316 233 159 238 275 242 182 278 126 328 146 149 137 180 142 149 161 144 141 292 150 298 220 294 300 235 291 281
251 247 268 244 206 257 262 267 270 314 319 319 322 325 191 231 284 117 219 300 201 251 148 248 185 361 223 149 165 140 131 181 192 136 137 152 140 145 131 260 249 274 296 178 218 173 275
236 245 245 255 254 243 262 241 255 213 265 277 242 272 278 300 268 232 237 202 277 278 163 219 370 198 183 157 152 145 138 280 135 127 159 131 239 144 126 139 226 254 277 279 273 266 270
232 235 187 246 328 334 277 220 263 250 288 255 266 267 250 283 204 286 295 314 334 236 354 136 143 139 188 138 145 280 182 156 321 137 132 133 138 142 134 117 139 150 127 258 245 266 132
221 221 224 229 260 212 232 225 277 296 339 282 325 317 221 329 345 284 288 382 345 239 142 165 147 141 135 175 201 181 314 311 164 159 123 118 132 288 140 120 138 105 137 146 291 260 139
232 247 229 191 209 259 220 384 183 153 185 185 198 344 208 206 198 196 254 136 149 170 184 120 160 134 177 167 202 294 276 229 149 140 125 135 118 114 116 111 278 105 236 247 105 119 152
238 219 212 205 200 187 186 197 170 171 177 412 195 205 335 184 200 273 181 115 120 136 327 132 154 159 270 189 186 179 188 263 174 171 164 272 137 137 145 259 140 118 129 250 307 142 315
220 225 204 143 211 185 239 258 190 164 205 176 170 377 285 204 265 187 162 137 134 167 141 145 222 193 161 158 188 160 180 261 171 182 167 182 215 235 183 177 257 179 162 253 177 253 131
236 227 197 188 222 198 144 214 227 209 230 227 271 224 212 267 197 192 139 120 141 155 141 131 139 158 169 186 162 220 236 190 216 234 169 201 158 149 144 209 155 148 190 127 115 134 183
267 211 130 182 178 198 217 175 204 193 249 211 251 217 202 200 223 161 126 149 146 166 129 192 201 155 178 182 158 232 165 162 158 208 223 237 193 223 160 149 137 146 131 134 206 148 153
269 243 217 202 157 176 200 194 192 186 194 215 210 213 208 161 149 126 202 152 133 159 141 180 184 190 152 163 206 156 147 156 165 175 245 144 148 166 158 152 200 139 132 136 192 130 120
168 235 198 207 159 150 186 213 193 208 210 203 212 196 189 193 188 155 139 134 158 140 156 208 176 214 183 166 192 172 187 166 184 198 191 200 190 163 150 153 167 152 177 139 123 163 137
232 283 207 180 221 181 145 178 209 204 222 224 216 224 224 213 192 204 178 204 167 152 142 177 196 159 189 175 167 196 149 158 180 204 173 181 197 164 185 152 193 164 140 125 140 170 187
183 270 273 243 220 159 195 194 184 210 193 208 205 205 194 197 213 214 203 136 193 201 168 195 195 201 203 164 196 195 195 196 176 192 198 179 203 185 154 165 175 176 143 136 146 150 129

GFSGBSN_2pvu_pres_087.txt.gz
Presure
197 201 202 204 223 189 230 226 226 227 241 245 244 214 240 181 242 243 248 213 214 211 236 203 241 245 233 241 278 200 241 251 165 131 188 122 156 125 136 138 126 130 122 125 127 123 118
190 204 213 234 234 238 245 246 246 248 248 250 251 250 253 252 246 228 240 253 252 212 232 261 252 240 237 236 276 204 276 288 256 258 184 151 126 135 126 125 123 121 114 132 130 139 123
245 254 253 253 262 240 255 264 268 265 263 265 266 259 257 257 259 255 261 256 259 266 264 206 216 238 219 242 228 240 269 238 174 176 176 124 156 132 133 130 126 126 125 132 136 135 210
279 303 293 400 409 398 396 386 375 372 367 351 343 310 289 281 270 269 264 265 263 258 266 267 263 221 238 271 217 226 235 171 225 180 307 149 156 142 127 137 130 131 134 137 142 130 148
219 256 437 415 430 253 408 422 396 395 426 391 372 357 343 337 313 295 287 280 274 268 267 245 264 259 255 207 268 253 253 273 185 276 255 144 149 159 151 139 141 119 124 139 136 138 144
191 205 262 425 406 404 394 388 389 426 409 405 401 400 375 357 349 331 314 293 288 276 274 278 276 208 270 269 271 272 279 260 270 164 310 148 189 147 153 148 166 129 138 130 142 154 149
253 224 177 434 427 437 443 459 437 417 407 392 391 392 392 394 391 364 350 326 319 297 285 282 274 279 274 275 275 280 279 277 320 305 148 267 143 144 140 159 352 150 136 163 178 338 141
270 243 238 297 423 406 449 434 369 370 388 391 401 407 404 403 387 383 371 354 345 324 307 304 291 277 277 274 279 285 283 302 308 298 188 225 170 204 203 157 146 281 162 140 152 138 142
256 242 239 280 417 403 394 373 370 372 368 370 375 395 404 405 402 377 365 359 344 333 314 309 301 296 295 292 289 296 309 315 295 302 219 206 156 228 138 127 279 241 213 141 141 148 145
254 256 258 268 299 393 386 380 370 370 362 372 379 378 405 419 415 380 368 357 349 337 316 314 303 299 299 299 304 311 308 303 207 170 184 295 134 267 148 328 322 135 139 141 151 156 155
223 197 270 256 292 320 429 375 382 359 363 356 360 385 393 428 401 367 366 358 352 340 329 331 316 302 264 300 302 287 304 256 127 139 139 137 165 222 141 143 136 141 148 154 156 141 140
189 251 235 241 269 291 351 443 418 383 358 371 358 372 403 409 390 341 342 340 348 362 358 346 338 238 252 294 290 300 290 242 130 268 271 234 259 138 137 139 177 258 152 249 141 140 152
260 226 258 261 249 279 292 391 469 414 398 399 372 391 405 423 399 342 347 340 343 328 223 351 338 321 313 246 131 174 204 215 266 142 144 138 140 130 142 146 207 166 144 152 170 168 161
222 246 217 242 322 305 281 319 477 454 439 395 411 411 411 355 370 357 352 120 203 235 312 327 319 122 165 183 292 181 146 143 140 131 187 153 150 143 162 147 153 165 148 157 163 285 314
246 250 261 353 357 321 293 272 304 425 445 438 400 414 368 376 354 350 329 342 334 229 148 140 136 239 134 258 139 144 135 302 145 149 149 184 155 167 158 162 146 303 273 303 301 300 308
233 216 212 283 374 252 319 208 215 303 276 359 160 384 391 364 342 191 321 310 314 259 230 232 231 137 131 142 171 139 140 142 141 157 163 150 152 154 160 150 296 206 287 188 297 284 283
202 203 206 233 199 353 222 324 300 278 262 251 319 207 334 322 315 317 319 314 215 180 178 262 178 209 239 196 156 147 148 160 152 154 170 152 153 166 124 128 125 120 122 288 250 160 276
217 236 259 197 188 399 174 343 343 323 309 107 182 190 273 269 268 277 268 216 142 290 212 199 224 192 175 136 182 144 146 132 300 165 146 140 146 125 139 142 131 113 155 277 291 113 275
231 192 228 181 190 325 161 231 365 231 334 345 337 281 285 294 207 219 200 200 205 129 144 180 178 166 152 174 154 147 142 294 305 184 126 145 153 125 130 149 138 159 137 120 116 279 109
209 221 164 243 169 207 369 278 190 194 198 282 202 273 354 361 161 188 148 271 134 181 145 164 201 149 140 136 149 199 165 301 155 167 127 130 134 138 127 211 147 140 134 160 105 199 130
206 127 166 192 223 234 170 260 164 320 319 171 191 190 179 301 318 170 184 176 150 220 158 152 133 138 143 182 177 182 155 176 165 177 315 153 138 118 121 205 283 127 121 120 128 268 137
159 116 170 148 135 193 237 242 226 279 270 228 200 180 169 180 132 187 175 182 205 147 158 147 140 340 177 176 179 177 331 176 255 169 172 206 164 146 142 196 301 144 133 141 315 121 263
140 142 186 192 133 207 191 196 251 250 256 236 130 224 254 152 147 134 135 138 155 147 157 145 172 204 174 173 151 153 168 264 234 193 170 192 167 242 168 222 199 158 154 165 146 149 168
215 154 156 137 166 168 199 209 193 240 244 246 213 212 166 133 149 131 150 142 174 153 151 195 201 168 163 175 220 210 150 158 208 219 235 233 203 161 183 160 155 236 178 162 205 176 154
204 223 209 226 143 198 196 185 222 184 181 183 162 208 201 240 153 201 140 161 185 146 145 199 237 165 207 224 138 191 153 205 193 194 218 153 160 169 167 161 165 148 140 150 139 212 137
203 214 231 227 202 197 197 203 198 184 220 182 177 202 141 175 176 141 139 145 171 138 221 203 167 145 161 212 172 179 173 178 168 207 204 204 197 217 173 175 180 155 202 137 173 135 122
192 201 211 271 177 141 151 208 200 210 215 183 197 218 183 161 158 185 153 134 133 135 166 188 207 173 207 206 159 151 149 190 192 188 166 199 160 198 209 182 174 177 188 182 156 161 153
182 195 203 214 217 188 170 147 196 205 202 198 187 188 178 186 129 191 180 210 135 134 133 179 172 206 182 203 168 196 198 205 184 203 193 172 179 189 169 163 173 151 156 178 162 186 188
171 188 186 198 210 249 159 163 166 193 201 196 198 203 204 188 196 136 198 149 138 198 161 203 204 199 194 209 204 198 194 192 196 187 201 190 205 202 204 193 156 184 183 174 149 119 158

GFSGBSN_2pvu_pres_093.txt.gz
Presure
242 201 223 218 225 229 315 300 260 225 264 366 238 261 212 197 263 225 262 242 254 242 238 216 230 218 206 226 198 232 220 214 259 254 258 192 170 148 168 157 144 152 133 142 153 144 166
211 190 205 220 240 352 181 276 343 328 287 260 257 258 268 270 262 259 267 286 243 253 241 225 193 220 227 218 242 206 238 229 234 242 233 236 228 147 177 144 176 268 134 166 140 147 138
215 232 237 363 371 374 365 342 281 430 457 447 450 459 419 400 303 287 282 293 300 251 256 242 234 236 213 214 197 226 197 212 214 260 248 170 250 227 141 146 151 151 154 180 142 132 148
203 198 345 195 370 365 334 306 354 409 413 413 422 419 424 407 374 357 341 325 316 271 267 255 243 240 234 231 224 206 216 249 226 227 226 224 253 246 156 229 150 284 256 132 124 141 142
196 226 146 289 378 346 280 311 355 381 392 384 385 399 400 403 386 360 347 320 308 260 263 263 251 248 245 213 185 224 230 199 228 258 250 238 236 245 269 198 169 211 231 158 154 119 123
180 200 311 404 362 337 284 331 394 369 376 368 371 398 386 392 403 390 355 323 305 307 309 267 262 249 244 198 245 219 239 259 259 229 247 235 261 237 167 257 215 149 222 170 162 165 133
198 259 395 386 353 328 285 338 386 361 364 375 360 378 401 389 394 422 404 324 310 308 311 293 276 247 249 249 251 229 260 254 257 252 253 253 251 269 286 236 143 140 305 215 134 145 132
175 237 409 376 349 334 282 419 398 383 379 376 359 357 367 402 402 394 376 380 326 313 309 296 289 293 275 265 265 257 258 259 262 266 270 272 274 277 291 289 210 309 155 194 136 129 131
238 220 302 372 350 337 294 448 421 396 385 353 374 359 371 433 384 372 359 365 349 337 320 294 297 291 289 288 287 277 264 264 272 280 282 282 282 288 288 291 303 142 139 149 129 278 133
182 237 187 366 345 339 287 453 441 412 364 369 361 368 407 386 348 351 340 335 341 320 310 318 289 291 284 286 286 286 287 287 284 281 278 285 290 290 304 325 350 340 172 151 172 140 339
227 192 333 363 353 339 283 462 424 412 384 379 373 399 470 354 361 327 318 318 318 320 307 311 296 287 305 300 296 293 296 286 283 285 290 293 296 325 317 365 361 301 150 144 158 163 165
198 233 219 376 358 343 309 443 445 425 405 409 419 442 390 339 346 335 328 321 326 331 312 307 305 302 297 298 295 292 296 309 313 314 321 325 316 304 340 333 273 307 167 155 153 157 159
169 216 171 371 368 352 292 238 394 392 401 421 417 421 360 365 335 327 328 317 320 328 324 321 306 303 304 298 300 305 305 313 314 308 315 295 301 314 325 316 322 310 318 154 145 141 171
183 201 213 213 380 370 344 330 268 296 162 358 373 379 156 362 338 336 336 342 351 329 330 340 343 326 335 334 315 324 304 303 289 293 158 272 314 301 319 282 141 294 310 137 297 293 286
151 191 199 218 271 381 366 345 327 238 228 147 137 357 234 352 344 348 330 332 321 323 341 326 322 312 318 310 304 301 286 177 253 345 312 288 116 296 123 287 128 139 140 146 141 146 146
206 203 209 194 237 284 315 374 356 330 294 194 235 257 333 341 350 260 311 331 328 110 214 150 140 326 320 315 302 138 140 322 222 138 293 139 255 204 154 152 233 230 228 146 146 145 160
204 261 193 207 228 183 180 145 118 364 243 316 292 262 284 249 228 165 277 141 140 245 296 298 148 230 139 139 146 148 330 299 137 131 150 163 191 139 140 140 145 145 158 152 151 157 145
145 234 162 166 201 175 170 170 167 169 234 209 133 315 306 288 295 289 135 266 180 134 132 266 141 302 314 315 134 155 159 258 141 136 140 141 144 150 153 155 155 163 133 130 116 136 147
198 227 226 202 166 164 202 158 164 159 184 169 168 148 222 300 304 132 279 322 320 181 319 138 152 180 148 149 305 275 259 246 257 167 255 149 184 253 141 148 141 125 183 127 136 133 111
161 216 205 221 210 161 191 158 166 124 131 150 155 223 203 132 140 264 262 168 154 162 163 152 157 155 151 155 150 131 135 140 221 295 279 205 140 145 123 140 166 135 151 140 122 136 266
164 120 208 207 238 192 200 199 190 139 166 161 160 168 159 184 177 147 147 139 135 141 141 143 231 142 258 173 162 164 286 290 288 259 293 140 136 140 125 287 131 128 124 164 169 131 121
124 150 203 209 229 264 207 138 153 180 176 145 145 241 138 144 136 121 217 195 135 140 167 169 324 327 167 166 160 176 160 270 162 170 165 206 156 294 295 139 128 193 113 123 118 154 303
187 124 178 192 209 230 268 205 200 184 164 147 171 182 134 118 155 153 133 143 138 149 244 243 188 212 153 181 161 155 183 237 237 242 237 156 170 201 151 158 203 244 225 169 234 237 217
209 187 200 157 205 216 201 263 226 195 133 142 150 199 133 113 149 140 143 176 133 163 181 149 149 208 175 191 234 232 230 228 229 179 180 182 183 191 165 165 163 193 205 206 201 199 188
175 195 191 197 184 200 209 223 257 243 214 134 142 177 131 210 130 186 148 166 145 166 162 197 174 179 204 196 176 172 213 207 164 121 169 197 200 192 200 180 198 194 189 197 180 158 181
166 201 177 197 179 193 202 213 211 249 258 149 126 133 159 137 129 147 149 206 139 207 196 152 206 203 146 153 143 197 191 204 191 190 193 193 191 189 187 176 178 195 192 202 165 157 205
192 159 174 191 187 184 195 189 201 218 237 264 250 214 178 202 154 131 128 128 153 162 151 177 196 186 163 204 187 199 186 195 180 186 189 192 186 185 179 174 167 182 183 171 162 167 164
152 192 166 193 175 185 192 199 206 198 203 220 243 259 160 196 178 127 132 176 195 179 129 129 197 209 199 191 189 194 191 192 184 185 202 191 185 189 190 212 189 192 215 183 200 172 184
190 151 172 165 178 171 164 194 175 193 216 185 204 225 142 250 233 179 148 142 188 212 130 217 220 227 232 233 232 234 228 237 234 247 243 243 223 232 193 237 238 235 252 251 244 242 224

GFSGBSN_2pvu_pres_096.txt.gz
Presure
216 214 261 321 279 390 391 403 388 384 363 351 350 269 261 281 259 257 259 284 297 272 259 249 216 214 207 216 210 208 206 215 228 215 230 255 251 204 179 164 173 122 135 126 132 126 152
229 220 269 355 390 272 305 396 351 319 318 299 304 321 331 342 353 252 263 268 280 186 277 256 253 233 229 204 211 213 226 213 198 226 230 219 254 238 226 214 168 143 142 122 149 125 143
221 274 243 197 434 392 361 341 321 279 275 377 393 354 366 458 372 338 296 279 281 267 279 292 260 251 241 235 204 217 205 206 226 211 212 208 222 230 244 238 163 154 125 180 144 154 147
218 275 290 210 380 346 342 305 293 396 413 391 375 377 394 422 418 421 325 347 293 279 259 208 268 249 213 244 243 232 220 226 213 214 212 221 213 233 224 246 247 249 137 132 171 149 149
218 179 221 328 361 353 308 291 443 457 388 372 357 361 391 387 400 404 414 309 341 281 254 253 253 263 255 257 245 238 235 226 225 221 218 223 224 207 227 229 247 251 240 174 150 199 215
224 189 360 371 363 337 294 446 422 400 373 362 355 363 382 388 386 394 404 388 288 289 259 250 246 237 230 248 254 236 239 238 223 221 237 222 207 214 221 234 255 232 241 243 220 256 174
175 169 339 374 355 337 495 446 404 393 369 373 366 381 372 414 402 389 393 361 335 319 275 302 243 242 249 240 251 262 244 236 238 224 226 239 220 212 215 211 224 230 272 140 144 147 152
197 171 292 373 366 258 475 425 416 393 380 376 360 374 380 423 389 373 372 345 316 311 348 265 280 258 245 251 258 274 249 245 244 239 241 230 252 229 212 224 222 249 280 253 270 142 150
171 220 277 378 370 350 409 438 411 398 372 370 371 378 407 387 353 340 336 325 308 307 326 315 293 281 275 275 264 270 256 260 251 246 245 250 252 249 259 265 269 242 276 293 318 334 260
160 206 258 305 332 354 394 406 422 385 386 376 386 410 373 343 336 336 341 303 304 305 317 306 288 284 277 275 274 270 258 259 261 251 252 256 232 262 267 271 279 284 319 329 333 380 185
172 180 225 268 374 355 357 404 417 438 427 417 428 359 343 339 342 347 320 309 319 297 307 298 295 294 294 294 288 280 277 273 264 265 263 265 275 279 285 280 316 325 335 374 352 337 378
156 206 205 247 263 363 285 395 436 394 432 381 383 355 338 335 335 322 327 327 304 301 294 310 309 304 301 308 307 306 298 302 299 300 306 300 301 307 312 314 347 359 332 355 355 298 143
215 163 185 176 201 307 342 119 405 392 384 371 340 341 328 329 326 314 327 329 316 296 302 296 296 301 315 296 300 313 306 300 303 299 303 318 316 335 335 329 308 329 275 321 331 336 288
181 256 164 187 182 203 229 331 133 121 237 164 359 338 338 336 325 322 325 315 308 317 299 317 316 308 318 314 303 301 294 324 331 322 315 309 314 320 307 309 302 294 296 214 301 299 150
219 187 154 155 172 173 109 365 135 319 268 368 354 355 337 341 144 322 323 315 309 308 305 305 302 314 318 323 320 301 317 294 294 289 350 314 301 296 272 292 291 275 293 275 276 272 165
195 211 218 160 169 195 156 181 360 344 247 324 124 127 138 143 347 343 193 244 341 328 331 324 321 320 321 320 266 285 278 305 324 232 295 288 281 280 287 265 290 291 126 280 279 287 212
147 195 150 159 163 167 145 162 166 154 220 135 320 139 132 312 164 172 327 360 142 137 204 311 305 305 295 280 271 264 140 200 289 288 236 169 171 285 146 241 279 245 277 275 150 143 145
195 193 167 172 280 161 158 157 222 179 160 388 134 229 341 324 148 307 166 260 149 286 282 268 267 248 255 325 301 195 151 146 158 159 262 285 268 271 147 144 142 142 143 143 157 148 156
189 198 215 194 146 170 185 148 156 126 157 139 150 161 163 166 150 152 144 142 138 300 296 140 140 178 306 140 142 143 142 142 135 133 145 143 139 140 141 152 151 151 182 139 140 134 165
189 215 201 221 213 159 215 195 134 164 165 203 132 148 148 147 143 142 140 143 140 140 141 144 148 150 145 145 146 142 139 148 154 155 150 194 152 149 150 146 140 136 130 141 133 263 139
122 183 186 193 181 207 127 272 163 207 173 127 165 139 232 163 229 231 163 162 160 160 202 197 204 169 292 256 255 285 295 281 290 278 242 245 148 147 143 139 154 281 139 133 172 119 127
176 130 184 188 204 205 210 246 280 139 212 182 155 156 166 158 134 128 175 182 165 157 167 178 162 160 236 157 307 157 251 250 160 255 309 288 141 137 135 142 131 148 126 133 121 151 121
161 172 182 191 178 198 208 205 217 130 130 150 132 140 111 196 135 149 195 211 188 189 225 138 161 199 170 155 241 161 165 166 236 209 174 226 237 240 219 161 151 143 213 194 147 231 234
183 160 180 178 188 174 197 181 208 177 137 206 220 191 134 151 133 176 146 147 173 198 164 210 178 166 194 175 195 214 210 205 204 187 186 185 200 212 208 216 187 215 216 211 209 176 178
180 190 174 174 173 137 184 198 197 202 196 142 138 143 128 138 187 155 161 150 150 198 199 176 142 143 138 161 190 207 169 162 158 190 199 199 201 190 168 205 183 204 190 205 174 209 177
179 184 179 159 132 188 188 193 189 198 210 146 204 127 137 135 132 144 151 144 207 169 186 147 204 189 195 151 155 177 193 190 189 187 187 188 172 190 183 177 181 173 166 183 185 171 161
181 183 187 173 165 170 185 176 181 192 198 222 204 195 164 219 226 139 133 130 155 153 197 137 233 199 191 184 195 192 192 170 205 203 193 215 190 194 210 229 209 217 181 200 191 193 214
173 174 168 190 166 176 182 200 173 189 189 186 187 191 215 216 255 234 134 128 177 149 178 131 140 222 248 243 248 241 231 229 221 219 224 218 220 206 207 224 233 236 206 243 241 215 206
159 175 172 162 181 181 179 175 203 182 185 182 187 207 193 215 189 233 256 256 158 178 127 219 124 201 209 215 169 135 213 144 210 148 218 201 216 216 224 221 233 221 231 232 238 224 235

GFSGBSN_2pvu_pres_102.txt.gz
Presure
204 177 222 200 389 359 423 415 403 401 410 424 329 338 345 372 392 368 369 280 260 250 244 220 268 252 240 223 223 218 208 213 201 211 219 224 200 201 148 149 150 151 158 161 164 177 141
173 163 220 303 440 420 436 400 390 385 380 390 389 302 316 337 359 375 385 370 290 276 239 215 225 282 275 245 225 217 219 208 210 199 216 208 214 207 199 152 153 151 156 158 158 156 162
171 167 153 265 140 480 439 405 397 381 379 375 383 388 317 297 314 341 361 386 384 345 279 269 234 234 267 273 254 230 214 206 213 205 203 207 204 215 220 227 184 151 151 156 148 155 121
174 193 213 197 421 517 435 413 403 384 374 370 356 372 380 395 317 292 329 352 363 369 403 281 241 224 236 264 267 257 236 221 206 217 207 208 197 216 209 216 218 211 234 233 158 228 158
151 160 170 210 420 512 434 411 387 376 357 344 342 345 359 365 374 396 349 294 336 346 363 392 352 231 218 239 238 244 278 240 221 208 222 209 207 210 215 214 217 217 230 229 212 190 239
162 153 167 148 424 462 429 420 380 367 354 353 345 350 360 360 375 405 419 427 288 316 337 308 376 268 244 219 225 241 277 266 234 219 210 209 220 219 214 210 213 216 216 217 223 238 238
168 171 171 235 295 436 385 374 432 426 406 381 373 382 377 403 409 421 404 400 397 290 305 330 355 348 247 243 242 232 277 262 246 235 227 221 217 221 217 216 216 220 214 221 231 224 234
169 187 165 143 143 395 398 372 365 372 370 402 417 431 441 436 424 382 369 377 380 342 269 310 343 338 278 241 237 244 237 256 251 250 240 229 225 226 221 217 217 219 215 197 226 222 224
157 169 161 171 126 306 394 372 359 341 335 335 332 339 341 351 355 349 353 358 366 353 331 303 327 333 321 239 254 254 244 233 244 268 270 257 237 237 234 226 227 226 232 234 236 233 241
228 165 162 172 150 260 369 182 341 348 327 329 325 326 338 324 342 338 344 348 349 350 289 315 314 331 333 257 262 239 234 238 246 217 271 269 258 246 238 239 239 242 240 238 238 243 250
153 161 154 140 113 128 140 362 148 124 335 319 322 311 317 329 309 331 330 326 325 307 275 296 252 315 315 317 249 245 233 244 247 254 263 225 263 260 215 252 245 249 251 258 264 262 253
170 199 144 193 164 162 128 143 293 345 344 323 309 312 312 314 304 311 314 315 301 276 283 310 329 314 317 315 300 252 237 240 244 240 249 252 267 275 279 281 279 277 271 265 268 273 269
221 218 170 159 182 126 113 170 303 363 191 339 323 304 305 316 296 298 297 306 306 294 276 267 304 310 319 308 292 240 244 245 251 247 243 240 240 241 236 241 250 254 209 271 286 303 320
176 205 176 172 142 222 164 159 160 179 347 172 339 313 324 309 307 307 292 294 292 296 299 266 268 293 285 303 300 262 295 276 258 244 242 246 252 258 264 262 297 306 314 342 332 325 317
193 207 158 194 130 237 163 145 155 201 151 119 369 146 322 322 323 295 302 296 295 298 299 296 287 273 270 298 294 293 295 292 280 288 300 295 293 298 303 310 337 318 303 313 309 301 300
196 207 206 181 198 160 190 220 213 146 194 132 132 133 340 218 323 316 306 325 333 328 315 300 301 302 301 296 295 270 273 305 303 300 333 367 345 334 314 302 301 289 294 285 288 283 290
198 193 189 187 205 186 176 186 120 121 189 136 151 296 132 200 139 268 346 338 338 328 330 334 337 340 339 335 340 346 354 362 355 333 313 294 297 307 296 273 284 280 277 277 298 265 281
169 204 209 206 204 174 211 146 224 152 146 210 190 187 242 152 156 143 137 316 317 309 302 335 329 327 325 328 328 323 313 300 293 300 293 288 296 271 277 277 281 274 267 144 275 240 274
156 170 187 199 203 210 199 134 216 156 170 151 198 164 177 138 156 162 272 288 327 211 249 275 280 222 306 302 292 140 277 255 280 200 279 287 279 272 265 258 238 257 180 268 264 277 156
162 154 204 205 183 207 143 147 179 126 218 124 239 189 134 148 189 210 220 195 226 261 294 222 147 143 138 140 139 214 289 239 282 285 285 284 209 149 151 151 153 154 122 133 156 150 144
184 162 211 170 208 191 202 199 182 203 150 187 189 165 186 163 192 159 174 179 211 168 208 158 204 134 131 237 238 216 211 148 144 142 142 136 134 137 139 144 145 255 235 254 265 150 147
188 181 162 194 170 205 201 209 144 129 132 143 213 193 182 150 248 161 139 154 189 175 182 159 213 214 162 159 157 156 159 208 179 144 144 136 145 141 148 144 141 143 217 221 143 139 133
199 196 182 167 152 192 206 177 189 155 137 186 127 117 129 204 185 189 192 228 257 214 180 144 172 176 184 191 185 182 208 211 206 195 166 150 147 143 151 145 159 147 156 127 144 182 188
165 184 171 188 167 177 189 183 195 173 200 219 168 132 134 147 149 163 179 220 240 221 142 164 179 170 179 185 183 170 177 198 189 189 187 188 185 193 186 192 195 198 199 191 186 177 177
176 183 157 171 183 172 180 195 172 189 198 205 188 197 199 134 142 180 189 156 160 147 221 226 219 186 213 231 230 216 200 227 195 197 206 222 176 175 175 176 180 224 177 177 177 175 222
180 157 178 174 163 186 183 172 181 182 199 191 217 179 137 146 161 132 157 127 137 134 132 140 148 245 218 211 209 211 219 214 223 222 219 220 226 199 225 221 207 227 231 230 231 237 237
170 173 159 177 179 164 184 183 191 180 195 178 197 197 180 202 173 205 198 189 134 137 140 172 163 136 139 210 179 164 174 248 245 245 247 249 247 254 250 251 248 242 241 241 245 258 259
174 171 188 158 163 185 179 161 183 166 178 193 195 177 190 185 196 199 196 217 179 180 207 155 216 181 219 192 209 132 207 174 198 136 136 218 224 197 180 151 224 217 232 225 236 228 236
164 151 171 175 186 151 183 182 188 166 191 173 177 191 168 196 183 202 182 174 192 183 182 174 204 183 201 196 229 193 231 223 200 190 149 137 173 230 135 217 209 211 211 207 225 243 271

GFSGBSN_2pvu_pres_105.txt.gz
Presure
281 215 157 174 336 420 440 423 403 389 373 373 378 385 412 362 344 353 376 368 382 286 249 248 234 219 264 248 222 211 216 223 205 191 226 195 194 168 166 143 142 142 151 158 166 160 167
229 158 166 163 175 286 432 416 406 387 375 359 367 364 390 421 331 338 382 364 371 364 273 267 239 236 211 263 241 218 214 216 219 223 220 212 196 221 231 172 140 151 147 150 149 157 163
182 159 176 144 389 403 434 396 393 377 367 359 350 361 381 416 324 329 341 364 356 377 350 277 265 233 203 208 263 231 221 209 221 214 216 193 207 215 226 223 191 165 148 151 149 158 152
294 160 175 178 395 387 374 400 375 361 354 353 360 341 350 381 399 290 333 347 385 370 353 349 273 254 226 216 216 256 233 223 215 218 212 205 197 216 205 217 229 219 235 234 152 151 158
164 157 175 167 367 360 343 354 411 396 367 347 340 343 349 365 380 334 297 336 362 384 356 366 309 217 254 217 220 243 275 235 217 204 205 211 212 210 203 214 205 215 213 216 209 217 216
159 161 187 169 366 287 340 337 348 349 385 397 366 358 364 366 373 375 390 288 328 361 394 363 362 278 199 248 206 215 249 264 230 218 214 212 214 215 215 214 206 209 214 212 210 208 225
191 156 178 119 139 357 131 339 351 349 344 344 452 412 397 373 380 391 436 426 279 329 351 374 380 366 260 255 221 203 217 257 266 236 226 222 217 208 215 208 210 214 210 209 216 214 222
227 153 225 136 129 116 355 344 318 345 330 342 340 352 373 430 418 400 390 412 368 296 327 345 365 369 336 264 229 218 214 218 231 244 268 249 229 218 217 216 208 214 220 221 214 213 215
224 170 218 129 141 265 349 297 322 315 326 343 333 336 346 356 367 362 367 375 397 271 319 329 327 356 338 336 349 263 224 235 233 245 255 257 249 231 224 225 220 210 213 218 220 223 231
197 149 186 163 144 120 230 312 326 320 316 327 328 347 350 361 357 359 346 349 357 271 281 314 317 340 331 336 344 261 213 216 231 231 237 232 242 262 263 237 233 226 223 224 226 228 237
106 216 166 172 125 151 187 181 334 331 310 305 308 310 307 334 333 333 339 336 343 290 265 302 321 330 170 320 328 288 230 214 222 235 221 225 268 260 256 253 239 235 234 237 241 244 243
212 136 181 143 222 195 148 188 128 330 318 308 301 302 304 297 296 314 303 295 296 272 285 325 323 323 315 314 311 302 252 243 225 231 233 231 235 239 242 261 282 276 275 270 268 258 251
203 203 158 192 207 139 130 153 133 139 338 322 310 302 304 307 298 282 285 271 279 289 343 315 317 238 321 316 324 309 269 237 244 251 242 233 235 241 244 258 276 277 276 277 283 289 276
204 193 212 197 171 155 194 121 138 156 237 316 317 310 301 301 298 303 295 303 276 264 276 309 308 312 312 314 294 246 258 240 238 235 232 241 249 252 247 249 248 243 239 240 237 255 282
203 183 203 217 201 165 151 120 201 138 137 138 323 346 339 320 299 293 291 292 293 274 268 306 311 309 301 300 304 312 256 207 240 237 234 242 242 243 236 235 239 253 322 354 340 311 295
188 169 161 171 201 211 134 117 130 171 176 166 224 283 352 343 338 317 304 305 303 300 297 291 279 277 301 302 302 303 267 273 266 264 296 295 262 272 332 356 338 326 294 297 290 287 283
186 195 200 178 144 134 168 163 134 205 173 145 170 156 277 341 327 331 351 347 339 325 316 310 311 310 313 256 310 311 313 310 311 340 346 349 344 318 304 294 285 283 297 272 282 267 271
160 174 204 180 196 131 172 129 199 211 157 188 201 199 138 131 148 315 313 323 329 331 332 333 334 339 341 326 328 325 309 307 300 302 306 297 289 280 279 270 266 271 267 259 250 256 260
168 202 193 198 206 179 151 147 183 144 232 131 156 194 244 140 156 164 144 135 142 259 258 290 287 160 279 268 280 292 296 293 296 285 277 278 274 274 276 281 266 266 271 277 264 264 247
190 182 194 192 197 176 181 217 131 189 178 206 126 180 158 164 246 188 202 207 180 128 136 178 183 134 252 254 228 181 272 284 216 283 287 288 284 286 276 268 260 252 259 259 271 258 267
184 186 164 200 188 189 187 221 152 127 145 151 199 215 210 236 240 222 170 177 159 175 181 127 126 153 221 207 207 181 140 217 164 215 139 138 152 143 145 144 139 145 141 124 153 168 160
185 184 191 163 175 189 191 206 177 126 220 120 149 148 210 174 219 219 239 151 176 233 167 168 185 171 188 161 153 149 223 134 137 138 134 133 134 135 140 139 139 141 222 223 221 220 217
173 184 180 187 169 179 193 206 166 195 181 202 125 115 165 183 203 202 220 230 143 231 192 207 226 188 171 166 198 192 184 163 165 156 148 144 147 150 151 204 183 138 139 140 133 145 142
180 183 181 181 197 181 171 196 193 209 193 205 181 176 124 169 146 154 208 183 144 179 235 252 156 195 215 228 237 237 214 227 234 211 210 210 243 215 213 184 226 235 186 178 193 153 150
162 175 165 185 160 161 189 163 173 205 199 198 174 197 191 203 136 169 142 142 143 199 201 206 221 230 254 256 253 247 243 236 227 211 245 212 240 229 241 244 249 250 247 252 253 249 255
168 173 190 176 176 184 190 174 165 199 177 208 210 180 185 186 165 137 190 133 132 133 134 135 168 219 218 225 207 212 221 225 224 217 221 228 229 227 227 223 222 231 218 227 225 237 231
160 170 182 174 159 170 178 193 186 205 164 193 197 210 181 199 220 190 182 166 133 182 200 197 190 189 197 216 240 237 228 211 207 208 181 184 202 233 184 215 218 214 210 211 210 209 209
138 161 164 178 173 183 155 196 185 189 169 197 195 194 193 197 178 204 190 219 189 165 176 178 207 189 160 173 169 205 190 199 192 228 202 217 215 182 231 136 227 238 259 260 227 261 207
162 135 145 170 188 179 180 180 153 193 193 175 184 195 179 207 196 178 170 210 201 203 180 175 200 190 205 217 183 184 183 196 188 187 214 209 204 202 205 212 186 223 228 217 234 222 242

GFSGBSN_2pvu_pres_108.txt.gz
Presure
268 237 197 172 164 210 371 367 391 391 385 359 352 353 367 382 401 395 352 336 375 386 271 262 235 234 226 202 201 232 222 222 223 198 219 223 192 168 201 153 139 147 153 163 162 182 157
218 245 171 170 160 359 141 366 389 376 369 357 354 366 368 384 393 418 382 344 314 378 416 344 189 258 208 215 207 235 228 224 213 215 202 199 230 228 183 185 179 140 143 148 151 148 171
227 236 195 158 132 352 352 343 360 394 367 359 356 355 349 387 390 397 381 342 303 370 221 390 330 217 250 215 205 205 250 238 216 220 211 213 204 216 229 227 181 185 153 137 160 155 154
231 227 171 122 126 343 209 349 356 356 400 354 351 342 328 363 386 388 348 332 344 332 357 371 365 198 260 248 213 230 210 208 247 226 223 219 184 209 202 218 221 228 222 157 141 153 144
233 241 151 124 130 339 338 341 344 348 360 398 357 343 350 342 372 372 331 328 337 383 356 366 366 256 269 261 231 234 218 208 255 240 224 217 210 201 206 215 210 201 225 227 240 165 143
216 247 170 145 127 229 242 337 327 349 352 362 410 369 357 360 368 369 331 330 336 375 359 248 352 361 326 243 195 229 217 206 254 252 232 217 217 213 216 215 197 212 218 213 204 220 233
229 228 184 121 239 342 140 320 320 327 360 360 370 410 403 373 368 371 336 282 325 349 380 345 357 352 340 267 237 242 232 228 214 237 253 231 218 215 209 215 217 213 208 197 213 210 214
156 177 138 115 142 217 163 324 317 312 331 374 380 378 394 421 420 428 400 282 331 345 367 355 335 346 333 338 264 238 205 199 226 214 224 251 237 226 220 220 219 196 219 193 223 220 216
186 207 163 140 207 143 168 135 325 313 308 310 344 358 382 379 399 413 425 277 335 338 364 341 337 345 338 268 275 263 238 212 206 219 239 236 242 244 229 224 217 214 211 213 215 222 220
184 192 189 143 129 127 175 330 326 316 301 303 300 314 362 367 384 400 260 267 337 338 337 355 362 342 344 332 333 259 203 252 217 208 215 232 238 264 249 235 222 218 217 221 227 228 223
188 207 209 154 160 146 139 240 129 320 314 300 296 295 308 322 363 275 264 263 322 321 324 347 342 342 353 343 331 305 213 219 200 203 210 211 217 271 267 257 239 233 231 232 232 231 231
201 204 212 194 131 137 141 138 138 135 320 314 292 284 284 303 278 270 261 274 298 316 332 330 272 294 338 339 328 345 246 211 231 208 210 214 229 231 224 245 253 260 258 259 260 256 253
160 198 196 195 181 152 149 180 190 146 330 311 312 304 290 289 280 293 304 310 319 330 329 325 322 323 323 321 322 347 337 260 224 211 219 210 221 228 224 232 224 225 269 264 261 261 264
181 217 181 146 132 132 180 134 143 174 173 306 312 313 308 307 306 281 277 300 307 311 309 316 332 327 307 308 326 318 332 323 270 208 209 212 213 223 228 227 228 231 237 244 246 265 265
189 177 177 193 129 197 201 158 245 145 146 226 167 333 298 306 288 299 299 293 297 298 297 302 309 314 310 317 305 309 313 304 250 240 235 236 228 224 239 239 238 245 252 254 252 251 249
180 195 185 177 194 160 150 160 159 198 253 152 154 281 174 327 311 296 289 292 301 290 277 287 290 300 240 304 288 305 313 302 285 225 229 237 239 239 233 237 242 241 243 242 308 300 297
175 179 177 205 166 148 198 124 188 141 148 181 240 158 147 236 335 361 325 317 309 303 300 294 296 299 291 298 299 258 301 280 249 241 241 235 233 241 245 247 293 313 301 296 295 282 279
163 163 193 179 167 182 156 196 136 135 136 216 229 188 205 200 148 150 301 294 311 303 317 325 356 365 363 329 331 340 339 335 348 350 335 318 312 298 296 292 285 284 297 275 261 272 272
189 186 181 179 170 187 171 178 194 185 123 136 197 243 215 232 185 196 138 141 164 196 291 293 295 301 303 300 299 294 298 297 293 296 298 292 287 285 285 280 277 274 277 258 262 280 268
185 189 207 166 189 191 194 160 147 186 212 166 183 160 219 147 160 182 211 172 131 137 139 143 238 185 134 271 288 290 289 284 287 286 284 280 283 279 255 283 273 286 264 259 273 276 251
172 180 180 181 170 183 177 167 169 202 197 161 152 208 220 213 219 222 245 250 224 156 135 148 192 204 150 221 237 240 212 166 234 236 236 235 234 235 232 230 226 224 224 226 224 225 221
162 173 177 184 191 176 181 196 159 192 135 124 118 187 150 212 210 228 170 150 217 221 189 245 215 174 187 183 163 184 133 134 135 192 133 133 133 133 139 158 187 188 179 141 139 126 132
173 177 170 185 170 187 178 180 214 197 198 174 173 182 177 193 196 210 146 199 223 213 210 181 220 209 248 234 218 218 225 176 147 135 133 134 135 136 138 135 136 142 139 177 163 160 180
167 173 171 179 182 184 160 179 169 196 208 208 189 165 146 195 170 138 169 181 209 200 219 216 228 236 224 219 238 230 240 254 256 254 249 248 247 243 241 239 232 146 183 190 167 191 134
146 175 161 150 182 177 187 191 187 189 195 208 171 211 218 135 131 183 195 171 142 135 140 157 206 202 209 236 230 236 211 201 206 210 208 226 203 205 223 206 208 207 258 253 256 259 271
145 168 170 176 198 165 184 186 175 195 178 165 207 195 197 196 192 208 149 125 135 131 132 134 161 186 191 206 200 208 217 215 229 225 219 212 216 239 228 224 210 233 236 226 224 230 228
161 163 140 157 171 169 177 181 152 167 175 181 181 177 190 181 191 168 183 210 191 192 189 152 222 217 134 167 196 197 188 196 186 211 206 189 226 206 211 216 225 228 225 193 229 222 232
176 144 162 147 178 177 151 184 191 181 166 168 181 187 182 163 199 200 179 172 197 208 193 185 185 191 202 202 210 153 135 186 195 189 208 218 214 199 174 208 186 159 141 208 213 230 228
164 172 159 181 135 154 165 158 199 183 183 162 178 161 169 178 181 196 176 193 190 195 179 197 198 181 187 200 207 199 222 207 180 181 139 202 196 196 171 149 157 186 179 214 214 218 218

GFSGBSN_2pvu_pres_111.txt.gz
Presure
211 217 211 127 158 160 234 363 374 377 374 359 358 358 356 359 373 398 358 354 357 361 326 207 175 185 188 199 184 243 244 225 219 219 223 225 193 181 180 166 148 150 150 152 168 168 166
210 173 219 137 149 353 144 366 378 359 383 360 349 356 355 358 396 385 392 383 359 360 364 387 242 242 181 213 187 203 224 239 220 227 214 215 221 208 213 178 167 167 160 150 150 149 154
184 216 208 202 128 355 149 347 375 373 361 373 359 355 338 347 399 387 410 390 384 355 354 359 399 152 257 162 189 205 201 189 227 222 215 217 195 208 214 214 240 170 168 140 145 155 157
136 210 175 127 144 322 143 326 355 365 373 388 372 356 350 345 373 374 380 373 372 355 344 339 401 391 194 231 204 213 199 201 184 229 226 220 216 215 207 209 211 226 233 179 137 144 146
210 215 149 144 239 141 236 323 327 339 387 395 383 358 356 348 359 368 355 374 361 340 342 330 307 390 398 262 216 180 218 200 199 198 231 227 220 215 217 215 210 204 220 231 204 178 139
203 209 231 141 146 292 342 323 326 327 345 389 451 381 362 357 361 359 355 351 336 333 346 311 336 366 390 367 227 244 229 217 205 202 193 242 232 215 219 218 215 219 203 206 228 236 188
184 202 149 133 121 250 135 290 324 324 332 376 395 442 384 365 375 351 331 323 333 364 351 272 341 359 360 363 264 206 236 226 218 192 199 195 257 233 212 211 219 213 211 210 210 212 219
220 185 169 238 177 155 167 142 302 319 322 350 394 414 420 315 302 328 327 330 349 355 346 346 343 333 349 334 339 211 250 243 193 217 208 202 197 254 243 226 217 216 222 220 207 204 204
214 209 180 222 131 162 159 243 323 297 295 284 282 273 293 297 320 333 335 348 369 323 337 338 323 331 328 325 307 292 193 218 243 188 197 222 207 200 211 253 236 229 216 218 216 222 225
191 200 167 158 127 137 223 267 150 323 291 284 278 270 275 273 329 347 355 368 359 342 334 334 327 321 218 329 317 323 241 254 215 197 204 218 209 200 230 267 248 239 227 226 222 220 215
190 214 160 201 118 138 220 149 322 329 319 314 323 273 275 306 317 315 320 345 353 328 332 326 318 331 318 318 319 340 198 201 223 243 227 217 211 209 214 220 238 249 242 230 230 228 225
175 200 194 152 212 201 208 163 151 318 321 332 285 228 326 320 323 331 339 337 342 336 357 224 337 308 334 316 330 326 286 266 233 247 226 210 195 201 207 240 240 231 248 252 246 244 243
201 201 191 213 211 172 237 160 171 159 161 319 311 302 311 317 309 305 316 320 315 206 319 238 334 336 334 319 324 353 319 282 243 235 219 212 212 208 210 219 218 219 265 262 259 258 258
209 181 203 134 146 203 142 246 255 237 229 163 327 313 305 276 300 299 301 308 305 312 329 314 307 317 336 317 323 335 342 292 253 236 225 199 203 207 205 209 220 237 241 235 234 238 232
193 166 182 149 141 154 186 202 146 241 197 147 115 303 187 316 304 285 291 290 301 302 314 303 308 311 315 330 332 331 334 256 250 223 211 236 217 210 223 210 216 222 231 237 241 242 244
175 197 190 192 192 185 131 147 192 136 226 168 135 184 115 92 317 308 299 294 294 293 293 297 301 310 308 308 316 318 323 318 251 248 244 225 211 217 219 224 235 235 244 244 246 247 251
181 180 163 196 171 165 193 167 207 145 137 200 216 159 174 111 216 285 341 344 318 309 296 291 295 298 299 187 303 303 303 307 310 309 303 251 245 237 239 240 242 238 242 246 249 290 306
162 185 183 164 202 143 161 206 189 126 195 222 143 177 235 237 135 146 138 233 316 312 316 328 337 340 327 305 300 275 252 251 254 243 244 239 241 238 239 243 247 299 303 302 290 290 281
181 161 183 159 197 166 181 187 177 198 180 197 218 155 159 225 235 168 135 136 141 235 160 261 303 300 305 309 311 317 315 322 319 319 319 307 306 301 297 298 299 292 288 273 282 286 284
182 183 161 189 169 195 165 183 163 182 193 195 194 214 206 219 192 188 164 155 156 173 170 211 214 232 254 282 285 293 298 297 300 304 298 284 289 297 299 267 277 270 264 239 232 227 222
162 174 178 185 180 157 166 198 185 161 190 125 181 168 189 142 176 227 214 250 183 187 239 195 234 177 184 189 159 159 211 217 220 222 222 220 216 216 213 210 209 209 206 201 200 197 196
164 151 176 186 165 193 171 153 192 183 126 145 185 169 191 199 141 219 197 150 210 254 217 227 231 238 165 162 243 172 141 187 139 237 140 141 141 142 142 240 187 140 143 142 141 137 115
153 172 173 163 184 165 187 173 193 200 192 202 177 162 186 156 191 194 212 208 199 216 211 207 244 226 219 217 223 226 164 154 158 160 133 133 133 133 159 140 134 133 134 136 138 143 192
145 172 141 173 163 178 167 171 185 182 176 193 195 198 201 182 210 173 190 205 188 177 199 206 203 212 200 204 224 243 245 240 244 259 256 258 270 260 252 242 248 162 237 226 221 134 145
145 176 170 152 171 177 183 162 184 153 189 171 172 196 192 194 127 203 197 133 129 131 212 207 210 205 195 199 207 219 203 201 215 203 231 228 227 230 226 226 223 218 225 221 222 227 223
140 178 169 166 141 180 154 178 184 180 186 155 178 190 177 199 184 175 212 136 127 127 131 200 207 209 220 216 189 193 195 206 217 215 219 204 203 210 197 194 194 227 188 186 188 193 180
146 168 158 146 171 167 171 174 173 168 182 177 159 183 179 190 175 184 158 205 174 219 200 185 184 190 189 176 207 216 164 163 161 181 187 186 184 186 190 200 190 196 203 208 214 211 218
174 179 157 161 176 164 165 149 174 164 164 178 177 175 177 184 181 180 197 168 206 172 191 179 179 200 180 188 190 176 191 158 219 167 195 196 193 172 191 195 193 193 198 194 197 174 182
158 170 168 138 128 166 163 178 139 172 177 156 176 171 184 191 157 161 180 200 186 192 189 190 205 171 196 184 181 182 200 179 194 205 204 210 126 174 199 126 188 133 141 199 192 147 197

GFSGBSN_2pvu_pres_114.txt.gz
Presure
196 221 160 296 141 166 138 354 357 371 396 382 368 359 359 360 368 372 343 331 353 355 293 232 247 164 166 185 287 296 234 238 226 226 221 235 207 194 212 170 148 140 147 149 142 150 148
193 199 135 291 148 137 153 199 364 380 393 379 359 355 359 352 357 372 357 341 342 360 361 302 239 180 171 174 188 281 282 283 240 225 221 211 226 218 204 194 196 164 151 139 142 153 144
215 198 124 286 137 134 132 304 332 403 405 404 370 362 343 344 384 409 384 345 342 343 346 359 374 276 250 171 172 167 273 274 239 234 220 212 213 210 223 220 203 186 165 180 159 141 142
204 131 179 169 154 328 318 306 297 326 423 432 376 366 355 360 381 383 395 377 345 353 348 369 362 287 263 203 191 170 162 241 218 277 240 221 221 211 200 214 221 220 185 189 195 166 145
208 215 174 196 104 210 254 308 294 308 313 469 386 374 362 371 359 391 388 398 375 340 341 340 343 377 277 251 169 178 175 178 187 182 284 234 222 215 212 212 222 219 222 198 165 166 164
179 213 167 150 181 248 326 346 335 281 343 332 298 352 377 374 356 376 359 374 375 378 359 337 349 394 392 268 244 209 190 177 196 180 176 196 232 224 221 215 215 212 204 211 221 218 210
202 138 211 145 135 180 315 326 355 344 328 271 351 344 338 327 326 330 339 337 336 338 337 344 352 377 387 394 257 224 173 165 191 197 180 196 253 245 239 227 231 209 212 219 197 203 212
198 218 149 159 134 196 241 332 346 353 344 331 322 344 338 329 329 328 329 324 347 348 368 407 325 379 384 393 348 272 236 184 197 176 195 191 194 188 188 228 222 223 223 220 212 200 209
171 197 164 173 211 274 181 231 336 334 343 346 336 337 356 343 349 358 365 336 331 345 323 352 349 346 375 382 334 344 318 255 194 178 195 196 192 195 192 189 233 229 219 216 219 215 222
185 201 193 174 217 166 240 224 272 321 330 335 339 351 352 369 351 372 338 348 329 336 334 323 338 338 328 350 320 311 326 307 250 177 211 207 196 193 196 189 187 189 236 240 236 223 211
176 186 152 157 137 207 247 158 224 274 311 325 283 324 318 339 341 327 332 344 283 317 330 323 320 312 316 336 338 322 316 337 259 192 172 201 203 204 187 187 192 191 192 196 207 245 235
172 200 163 136 201 215 196 241 171 170 282 310 286 267 318 314 308 314 328 316 324 333 322 210 323 309 311 331 328 343 312 319 284 178 196 201 217 184 192 190 206 209 205 198 242 265 262
191 171 193 152 181 134 198 236 237 163 122 274 311 310 317 307 313 299 301 319 329 329 333 320 96 320 318 320 321 324 316 314 262 176 248 238 215 188 189 189 203 198 203 206 214 231 238
148 169 180 179 136 203 145 206 246 233 196 121 156 102 303 301 308 299 300 296 305 324 317 319 318 315 310 322 316 321 308 305 298 278 255 247 237 194 204 217 211 201 202 208 219 214 220
188 184 178 198 168 141 195 216 133 241 241 147 136 183 304 102 298 299 300 292 296 299 311 338 304 306 318 343 332 317 313 300 297 287 249 249 224 222 217 220 198 203 204 207 213 216 219
171 165 183 166 173 201 178 190 166 186 189 253 188 247 101 302 329 305 289 302 306 304 297 306 314 314 305 309 316 318 307 296 293 261 208 241 231 227 228 201 222 210 207 207 218 229 237
179 187 193 198 177 177 155 210 194 191 207 203 233 197 185 186 144 284 336 351 319 306 303 300 300 299 302 304 308 315 317 299 294 255 244 237 225 231 241 206 206 214 223 237 240 238 246
159 182 174 190 195 177 153 152 172 198 198 214 155 228 239 242 137 173 227 244 306 320 340 332 302 306 302 296 300 305 307 251 246 247 240 244 244 241 244 239 232 232 240 243 295 318 309
161 182 187 176 185 153 185 182 181 213 121 187 204 151 220 225 238 201 225 158 206 232 261 296 310 318 324 324 255 258 261 279 269 258 250 256 235 237 243 262 304 324 317 301 294 295 270
184 167 185 172 190 190 190 190 156 147 196 123 194 164 213 228 215 240 229 204 258 226 251 184 187 243 270 288 300 305 306 304 310 310 314 313 302 301 303 283 273 257 245 233 227 226 224
171 178 152 181 191 177 171 167 198 152 129 171 164 158 211 197 204 223 214 227 241 216 235 223 190 210 195 214 218 220 224 225 227 227 226 227 224 228 223 221 218 240 213 243 236 244 239
180 171 164 170 171 191 171 184 172 182 182 163 132 179 188 175 190 181 204 214 219 211 218 241 230 153 159 232 152 215 241 197 197 198 200 208 231 234 236 245 261 271 281 286 133 134 140
184 170 135 180 172 176 178 180 179 178 175 192 183 171 199 152 189 167 159 185 232 214 214 218 205 209 210 215 182 142 140 138 135 135 133 134 137 216 140 143 142 168 140 141 142 143 148
171 174 171 171 198 145 177 182 171 174 166 178 181 190 176 216 200 178 191 172 190 198 220 201 203 207 207 211 220 217 207 213 218 235 194 195 192 227 191 189 225 194 233 206 208 233 226
152 176 180 174 182 175 157 161 192 175 182 165 176 177 189 175 161 173 195 178 130 129 183 190 212 222 189 193 204 206 199 202 200 194 202 202 195 201 192 201 206 206 216 217 220 221 216
140 132 172 174 181 173 160 171 172 178 171 178 191 187 179 180 184 173 174 196 128 126 129 173 131 157 207 204 205 199 194 192 189 188 189 189 189 200 200 199 198 196 196 199 180 192 196
149 136 143 175 164 155 174 165 174 162 179 171 179 183 185 182 178 184 186 193 175 187 217 181 179 163 209 179 194 187 200 216 199 212 208 202 221 198 194 199 182 204 184 197 200 219 207
172 165 157 135 172 172 154 173 156 176 161 154 183 166 182 187 180 168 174 184 188 186 197 200 171 196 184 169 174 180 196 175 177 179 173 199 197 189 208 191 193 191 181 185 192 187 137
170 154 156 163 135 179 166 123 171 170 171 179 144 155 175 177 181 181 171 188 165 192 182 200 179 174 173 184 172 186 176 176 188 179 194 177 177 174 178 179 191 193 207 182 191 207 180

GFSGBSN_2pvu_pres_117.txt.gz
Presure
198 203 225 191 208 348 254 347 350 295 332 394 369 358 360 371 351 339 331 337 326 331 351 248 169 170 204 259 181 198 215 232 221 218 231 208 202 206 174 161 149 152 139 145 151 146 149
215 228 201 238 126 302 185 370 360 377 424 400 362 357 367 366 350 340 333 327 323 329 354 338 399 163 147 178 174 278 238 216 219 225 217 213 220 199 187 200 191 154 153 150 143 152 153
185 224 192 94 144 151 265 372 359 368 404 410 373 366 360 358 377 333 337 329 334 324 339 345 336 398 171 178 174 164 241 151 223 226 220 219 218 217 212 183 177 174 199 156 156 144 144
190 219 142 200 253 168 347 370 364 359 353 390 393 383 367 382 386 422 343 326 326 329 328 355 365 408 242 171 221 214 163 281 236 236 232 222 213 216 216 218 221 222 205 197 177 198 157
190 213 144 224 210 172 344 145 374 363 360 342 339 350 370 368 393 401 380 339 338 346 345 362 369 280 370 211 179 166 172 196 189 289 247 235 230 225 204 223 213 215 220 226 201 194 172
211 199 208 149 262 178 297 340 360 378 369 354 349 335 334 349 358 398 419 356 336 323 333 351 349 359 394 319 168 186 224 172 175 273 288 284 278 261 226 224 225 221 214 211 218 225 215
210 151 216 195 129 242 219 146 350 363 384 367 354 357 341 331 330 337 357 385 340 332 339 336 338 361 380 317 283 208 176 171 199 159 268 276 275 270 231 224 226 224 201 198 214 211 200
190 191 205 157 134 266 266 142 347 343 352 348 363 375 366 343 332 336 333 333 380 367 333 328 337 358 357 388 309 310 179 188 182 177 177 205 233 271 269 257 232 225 216 211 205 207 204
180 211 157 142 145 210 264 226 333 336 332 337 339 344 356 340 332 327 318 350 351 328 329 334 364 350 378 366 323 297 275 201 175 193 172 196 179 169 266 267 262 250 231 215 208 206 209
196 146 184 148 154 155 245 269 141 329 336 322 330 339 328 324 329 337 322 343 347 337 404 347 332 363 369 328 316 247 266 244 209 187 166 186 170 173 180 167 239 261 243 233 229 234 233
188 174 172 159 187 145 148 251 228 173 326 328 315 309 328 324 327 314 325 336 344 339 337 336 336 363 368 335 328 317 283 257 184 174 177 175 178 162 177 173 189 186 245 185 222 231 228
186 196 159 190 149 188 188 219 248 163 217 242 110 308 309 317 330 327 313 308 306 266 319 312 317 342 381 325 319 318 318 267 250 205 194 187 195 190 186 184 182 189 188 184 190 193 190
165 174 173 177 193 171 200 197 237 253 175 181 319 316 308 310 315 320 323 314 310 322 324 317 331 339 377 320 311 335 348 355 260 245 232 157 158 199 194 191 190 187 190 192 199 193 202
190 171 171 158 190 184 203 135 211 230 164 161 228 325 310 309 307 315 322 304 310 313 308 307 308 320 310 193 317 309 304 323 349 254 180 198 185 168 207 199 199 192 200 186 194 193 211
197 162 191 173 146 141 140 189 221 215 218 154 143 238 260 277 311 285 314 325 300 312 330 325 302 302 319 345 320 322 313 315 321 339 291 241 248 204 201 201 205 209 192 204 197 214 196
183 176 200 193 198 152 148 145 197 170 209 232 189 255 264 241 309 309 300 305 314 313 304 317 316 306 305 304 303 308 304 312 313 314 292 281 234 208 211 219 196 197 203 212 200 199 197
192 169 187 201 171 164 183 151 193 169 166 162 178 236 246 248 233 251 319 312 299 296 302 303 302 298 296 296 298 292 291 179 291 293 288 273 245 234 230 226 216 219 225 219 203 203 205
178 190 163 188 186 190 178 148 183 198 129 153 151 204 229 240 177 225 226 265 317 321 302 284 294 303 300 296 291 288 288 280 281 283 284 244 234 234 229 228 227 220 204 204 201 240 234
180 183 185 168 183 184 181 185 147 166 136 203 143 219 216 224 239 238 143 219 173 249 292 310 324 260 264 287 286 268 258 254 245 253 257 272 262 244 220 212 225 236 232 235 327 303 285
172 179 170 144 171 176 197 173 196 163 135 168 204 206 184 173 219 222 236 234 195 240 228 231 249 274 295 305 312 279 254 254 254 249 246 243 234 237 274 280 307 302 292 276 262 244 232
171 175 177 187 143 181 167 199 169 182 173 187 168 198 185 180 197 176 218 219 221 231 258 238 241 221 220 230 240 251 269 278 282 285 285 282 281 278 271 258 245 231 221 225 254 256 250
178 174 170 183 187 144 169 189 200 188 183 163 197 181 152 128 148 185 197 212 208 219 221 219 237 236 138 279 235 236 236 209 207 242 211 242 207 298 289 269 258 246 243 238 238 229 230
166 147 175 169 181 183 174 149 181 179 193 161 177 189 195 178 195 178 186 198 147 197 199 210 209 209 214 166 150 136 134 132 131 130 131 152 149 232 174 209 203 214 211 152 189 198 154
179 155 147 189 169 181 175 178 143 180 181 182 195 168 180 190 172 168 205 167 188 132 141 161 191 202 203 205 207 208 210 205 211 216 175 178 183 208 174 210 216 149 145 187 206 201 201
168 167 163 150 172 169 183 171 191 151 180 176 182 179 172 162 181 197 190 165 188 129 167 142 180 191 200 194 208 191 216 190 194 194 191 197 196 208 206 204 196 203 206 203 197 184 202
166 172 175 143 141 184 170 177 175 167 175 178 166 185 175 189 185 176 180 192 201 192 172 206 127 131 174 186 187 181 192 193 192 195 187 201 192 188 191 190 198 195 189 191 189 191 164
176 164 172 172 134 142 156 170 163 172 170 181 141 160 172 178 187 159 177 189 179 196 199 177 170 195 181 175 173 184 190 197 197 205 184 192 189 191 195 196 197 187 198 165 191 185 189
175 151 177 176 166 172 142 172 169 180 147 167 175 170 149 150 188 184 185 186 183 190 184 176 184 184 194 182 190 177 187 190 200 202 190 183 187 197 193 182 183 191 190 158 162 193 191
172 173 161 170 186 151 173 139 155 157 160 185 157 154 181 174 168 183 172 183 183 169 190 191 187 164 174 172 189 195 161 199 188 189 182 193 223 188 186 194 182 211 193 189 195 203 201

GFSGBSN_2pvu_pres_123.txt.gz
Presure
186 198 184 242 235 227 311 186 383 385 369 364 356 375 388 386 376 365 345 358 364 365 341 341 376 405 372 161 254 223 234 194 211 202 200 203 217 212 223 174 155 144 138 140 139 143 159
176 173 184 233 234 168 237 172 354 360 236 346 359 359 386 407 367 338 332 329 320 331 324 331 332 408 369 390 165 242 227 225 191 193 205 201 204 205 213 160 160 185 154 147 142 141 142
186 180 192 238 230 137 151 156 354 364 357 342 346 359 389 410 340 330 328 314 323 321 329 321 370 141 328 335 302 208 153 220 219 185 204 191 199 209 199 215 216 162 151 153 155 135 136
175 176 191 227 186 160 223 298 351 218 352 352 361 370 396 407 340 331 325 324 331 327 320 345 385 354 182 320 301 173 154 238 160 194 185 196 196 204 214 202 210 216 216 214 144 149 152
191 179 191 226 235 156 176 267 331 209 344 365 365 309 398 395 343 333 324 327 313 316 324 364 368 332 312 322 320 315 181 277 229 224 203 207 196 189 206 206 200 196 203 209 211 187 178
200 179 183 214 133 203 264 241 324 187 348 346 155 364 377 399 345 326 317 323 327 325 322 345 306 288 292 292 298 209 195 168 267 223 221 198 210 195 193 202 202 195 199 201 209 210 193
155 180 191 185 150 227 240 268 319 206 341 339 333 342 381 425 327 313 328 331 333 330 340 328 282 289 287 293 291 293 296 167 282 290 130 191 172 208 197 195 192 198 209 201 194 192 199
170 175 185 190 220 219 230 185 261 264 326 339 332 329 358 419 367 325 323 323 319 347 350 330 343 293 289 298 296 287 289 269 212 171 208 146 180 198 188 189 185 170 177 179 171 192 194
173 198 198 177 204 183 157 239 265 227 288 325 333 325 322 330 377 345 337 319 332 335 366 296 291 282 275 275 285 297 314 167 236 222 196 232 143 145 214 211 194 186 184 190 193 196 199
159 213 193 184 202 132 209 225 235 252 311 282 322 328 322 322 305 320 340 326 341 349 366 285 278 287 274 284 293 287 134 165 199 166 155 260 177 177 147 147 213 213 213 208 197 204 205
190 190 196 187 185 201 197 206 157 259 244 306 317 319 307 311 318 322 328 332 354 365 342 288 280 280 293 292 289 305 324 158 195 177 153 159 208 150 166 204 199 198 201 207 207 208 210
170 181 191 199 174 194 208 207 165 230 267 137 308 316 245 237 312 316 317 337 337 347 349 375 286 273 269 279 286 285 290 158 351 202 193 184 162 263 156 232 143 175 219 221 218 212 202
177 191 182 211 210 171 166 208 210 220 230 188 283 266 312 306 314 317 323 329 354 370 364 366 310 278 290 289 287 291 294 237 198 157 152 148 143 136 151 294 264 301 287 218 272 289 280
178 180 181 192 184 211 169 189 210 146 215 226 269 282 310 305 301 310 326 338 237 389 375 321 303 293 275 269 298 303 276 194 156 179 170 180 226 207 143 225 172 156 261 212 169 162 238
178 167 179 184 166 186 195 179 188 187 205 206 223 268 239 93 290 291 311 338 374 376 176 328 296 293 258 272 309 311 286 160 151 188 191 198 215 145 166 188 163 169 161 235 182 165 169
176 181 175 172 195 179 191 192 134 190 195 211 218 224 257 238 318 292 232 298 383 241 325 319 294 295 315 305 322 337 335 331 327 226 168 182 199 172 187 166 147 183 169 196 185 183 181
175 175 180 182 178 189 183 181 212 140 200 168 204 211 218 230 261 250 312 259 274 286 303 323 292 288 289 294 308 330 293 230 324 223 227 210 182 163 149 155 195 158 173 182 164 184 186
169 187 192 168 197 192 189 165 181 209 176 175 196 206 210 173 222 234 270 253 306 271 255 275 277 278 281 295 304 311 327 339 378 222 219 209 199 185 197 193 175 215 158 201 191 198 203
171 172 185 183 171 173 184 188 186 183 213 185 192 203 204 192 211 218 220 234 268 274 308 288 258 255 273 268 275 310 323 300 339 299 231 217 209 214 194 205 198 198 197 205 199 218 235
175 178 171 181 169 171 171 170 173 168 174 200 179 142 182 197 204 204 190 219 211 231 253 258 284 309 272 252 266 281 228 301 312 207 247 230 224 222 218 210 191 215 204 224 240 224 291
184 173 168 178 178 166 182 170 176 181 171 178 166 211 171 196 188 203 211 205 201 213 152 228 229 272 273 277 326 282 257 273 279 294 299 244 244 279 280 277 241 238 228 244 294 284 248
172 176 176 163 173 180 160 168 164 165 182 169 189 160 204 216 134 195 187 217 204 197 170 208 208 167 217 225 291 276 277 282 340 348 215 307 317 347 351 332 306 274 251 248 252 246 247
180 165 171 176 168 152 174 156 162 167 183 181 191 187 182 161 198 170 178 180 149 186 199 200 199 200 206 160 134 133 194 214 249 259 275 276 272 263 263 263 257 251 239 226 221 221 202
157 189 190 160 180 169 151 166 191 180 162 163 162 163 184 193 184 167 193 171 172 158 165 133 169 197 206 201 194 178 196 183 208 168 130 129 210 215 171 167 169 206 139 173 133 131 168
134 180 163 171 183 180 172 172 139 175 176 180 180 189 152 185 191 196 173 196 202 178 178 180 184 195 145 191 199 200 191 196 198 196 198 201 203 199 200 201 191 192 198 197 196 195 197
154 173 173 150 183 168 156 181 175 168 169 184 176 163 191 164 150 151 198 188 181 199 189 192 171 171 183 183 214 198 200 219 199 193 187 191 193 191 224 196 204 201 192 193 202 208 211
161 188 156 133 173 170 164 182 189 163 185 159 168 166 169 169 180 179 174 182 187 188 175 166 188 189 169 172 172 205 185 190 206 182 179 186 185 182 183 182 189 195 199 191 190 181 202
149 179 148 169 162 170 167 181 169 188 162 182 167 181 175 146 167 157 180 175 180 186 166 167 197 197 162 197 201 187 165 169 183 196 185 180 190 187 178 181 194 180 196 183 192 181 197
164 183 177 129 192 135 201 157 169 141 180 179 166 177 191 194 171 177 162 195 185 196 179 197 203 167 198 195 196 179 185 177 181 182 207 182 183 204 178 209 195 172 176 181 199 197 195